Not logged in
PANGAEA.
Data Publisher for Earth & Environmental Science

Behrens, Klaus (2017): Radiosonde measurements from station Lindenberg (2010-03) [dataset]. Meteorologisches Observatorium Potsdam, PANGAEA, https://doi.org/10.1594/PANGAEA.875446

Always quote citation above when using data! You can download the citation in several formats below.

Published: 2017-05-18DOI registered: 2017-06-15

RIS CitationBibTeX Citation ShareShow MapGoogle Earth

Other version:
Behrens, Klaus (2017): BSRN Station-to-archive file for station Lindenberg (2010-03) [dataset]. ftp://ftp.bsrn.awi.de/lin/lin0310.dat.gz
Coverage:
Latitude: 52.210000 * Longitude: 14.122000
Date/Time Start: 2010-03-01T00:00:00 * Date/Time End: 2010-03-31T18:00:00
Minimum ALTITUDE: 112 m * Maximum ALTITUDE: 37398 m
Event(s):
LIN (Lindenberg) * Latitude: 52.210000 * Longitude: 14.122000 * Date/Time: 1994-09-01T00:00:00 * Elevation: 125.0 m * Location: Germany * Method/Device: Monitoring station (MONS) * Comment: BSRN station no: 12; Surface type: cultivated; Topography type: hilly, rural; Horizon: doi:10.1594/PANGAEA.669521; Station scientist: Stefan Wacker (Stefan.Wacker@dwd.de)
Parameter(s):
#NameShort NameUnitPrincipal InvestigatorMethod/DeviceComment
DATE/TIMEDate/TimeBehrens, KlausGeocode
ALTITUDEAltitudemBehrens, KlausGeocode
Pressure, at given altitudePPPPhPaBehrens, KlausRadiosonde, Vaisala, RS92
Temperature, airTTT°CBehrens, KlausRadiosonde, Vaisala, RS92
Dew/frost pointTdTdTd°CBehrens, KlausRadiosonde, Vaisala, RS92
Wind directiondddegBehrens, KlausRadiosonde, Vaisala, RS92
Wind speedffm/sBehrens, KlausRadiosonde, Vaisala, RS92
Ozone, partial pressurepO3mPaBehrens, KlausRadiosonde, Vaisala, RS92
Size:
802529 data points

Data

Download dataset as tab-delimited text — use the following character encoding:


Date/Time

Altitude [m]

PPPP [hPa]

TTT [°C]

TdTdTd [°C]

dd [deg]

ff [m/s]

pO3 [mPa]
2010-03-01T00:001129769.20.123015
2010-03-01T00:001379739.2-0.12319
2010-03-01T00:001609709.1-0.222912
2010-03-01T00:001849688.9-0.422816
2010-03-01T00:002169648.6-0.422718
2010-03-01T00:002369628.4-0.622721
2010-03-01T00:002609598.2-0.522823
2010-03-01T00:002949557.9-0.522825
2010-03-01T00:003179527.7-0.722927
2010-03-01T00:003359507.5-0.623128
2010-03-01T00:003479497.4-0.723229
2010-03-01T00:003679467.2-0.723230
2010-03-01T00:003869447.0-0.823231
2010-03-01T00:004049426.8-0.823231
2010-03-01T00:004239406.6-0.723131
2010-03-01T00:004449386.4-0.923131
2010-03-01T00:004679356.2-0.923131
2010-03-01T00:004989315.9-0.923231
2010-03-01T00:005269285.7-0.923330
2010-03-01T00:005529255.4-1.123530
2010-03-01T00:005759235.2-1.123529
2010-03-01T00:005959205.0-1.123629
2010-03-01T00:006149184.8-1.123629
2010-03-01T00:006329164.6-1.223628
2010-03-01T00:006499144.5-1.123627
2010-03-01T00:006739124.2-1.223627
2010-03-01T00:006889104.1-1.323727
2010-03-01T00:007039084.0-1.223726
2010-03-01T00:007169073.8-1.223827
2010-03-01T00:007329053.7-1.323927
2010-03-01T00:007439043.6-1.423927
2010-03-01T00:007579023.4-1.424027
2010-03-01T00:007729013.2-1.524028
2010-03-01T00:007838993.2-1.424128
2010-03-01T00:007908993.1-1.524129
2010-03-01T00:008008973.1-1.824230
2010-03-01T00:008078973.0-1.724230
2010-03-01T00:008168962.9-1.624231
2010-03-01T00:008318942.7-1.824231
2010-03-01T00:008428932.7-1.824131
2010-03-01T00:008518922.6-1.724131
2010-03-01T00:008648902.4-1.924131
2010-03-01T00:008808892.2-2.124131
2010-03-01T00:008948872.2-1.924131
2010-03-01T00:009098852.0-1.924131
2010-03-01T00:009278841.9-2.124131
2010-03-01T00:009458821.8-2.124131
2010-03-01T00:009648791.6-2.124132
2010-03-01T00:009818781.5-2.324232
2010-03-01T00:0010058751.2-2.424331
2010-03-01T00:0010238731.0-2.424331
2010-03-01T00:0010478700.8-2.524431
2010-03-01T00:0010688680.6-2.524431
2010-03-01T00:0010838670.4-2.224531
2010-03-01T00:0011008650.1-2.324531
2010-03-01T00:0011168630.0-2.224532
2010-03-01T00:001135861-0.1-2.324532
2010-03-01T00:001154859-0.2-2.624532
2010-03-01T00:001172857-0.4-2.824532
2010-03-01T00:001194855-0.6-2.724431
2010-03-01T00:001217852-0.9-2.724430
2010-03-01T00:001239850-1.2-2.724330
2010-03-01T00:001259848-1.3-2.724329
2010-03-01T00:001286845-1.6-2.724229
2010-03-01T00:001312842-1.9-2.924229
2010-03-01T00:001339839-2.1-3.024129
2010-03-01T00:001372836-2.3-3.324029
2010-03-01T00:001409832-2.8-3.424029
2010-03-01T00:001445828-3.1-3.624029
2010-03-01T00:001474825-3.4-3.524029
2010-03-01T00:001506822-3.6-3.624130
2010-03-01T00:001531819-3.8-3.824230
2010-03-01T00:001559816-3.9-3.924431
2010-03-01T00:001585813-4.1-4.124531
2010-03-01T00:001624810-4.4-4.424532
2010-03-01T00:001663805-4.6-4.624632
2010-03-01T00:001698802-4.8-4.824633
2010-03-01T00:001726799-5.1-5.124633
2010-03-01T00:001751797-5.3-5.324734
2010-03-01T00:001780794-5.5-5.524834
2010-03-01T00:001806791-5.8-5.824834
2010-03-01T00:001833788-6.0-6.024934
2010-03-01T00:001866785-6.2-6.225034
2010-03-01T00:001905781-6.5-6.725234
2010-03-01T00:001939778-6.8-7.025334
2010-03-01T00:001963775-7.0-7.125434
2010-03-01T00:001984773-7.1-7.225534
2010-03-01T00:002007771-7.3-7.425634
2010-03-01T00:002029769-7.4-7.625734
2010-03-01T00:002052766-7.6-8.025733
2010-03-01T00:002076764-7.8-8.325733
2010-03-01T00:002103761-7.9-8.425732
2010-03-01T00:002131759-8.1-8.725732
2010-03-01T00:002161756-8.2-8.925832
2010-03-01T00:002187753-8.3-9.125832
2010-03-01T00:002208751-8.5-9.625932
2010-03-01T00:002228749-8.6-9.625833
2010-03-01T00:002248747-8.8-9.725832
2010-03-01T00:002272745-8.9-9.825832
2010-03-01T00:002300742-9.1-10.025732
2010-03-01T00:002326740-9.2-10.125731
2010-03-01T00:002351738-9.2-10.425731
2010-03-01T00:002378735-9.4-10.525630
2010-03-01T00:002402733-9.3-10.525530
2010-03-01T00:002428730-9.4-10.625430
2010-03-01T00:002454728-9.6-10.725330
2010-03-01T00:002477726-9.8-10.925330
2010-03-01T00:002504723-9.9-11.025231
2010-03-01T00:002534720-10.0-11.125232
2010-03-01T00:002558718-10.0-11.125132
2010-03-01T00:002577716-10.2-11.325133
2010-03-01T00:002601714-10.3-11.425033
2010-03-01T00:002625712-10.4-11.525033
2010-03-01T00:002651709-10.6-11.725033
2010-03-01T00:002676707-10.8-11.925033
2010-03-01T00:002701705-10.9-12.125033
2010-03-01T00:002734702-11.1-12.325033
2010-03-01T00:002761699-11.3-12.525033
2010-03-01T00:002785697-11.4-12.624933
2010-03-01T00:002807695-11.5-12.724933
2010-03-01T00:002827693-11.6-12.824833
2010-03-01T00:002847692-11.8-13.024833
2010-03-01T00:002866690-11.9-13.124733
2010-03-01T00:002886688-11.9-13.224833
2010-03-01T00:002908686-12.0-13.324833
2010-03-01T00:002935684-12.2-13.525033
2010-03-01T00:002955682-12.3-13.525133
2010-03-01T00:002974680-12.4-13.625134
2010-03-01T00:002995678-12.5-13.725134
2010-03-01T00:003020676-12.6-13.825133
2010-03-01T00:003044674-12.6-13.925033
2010-03-01T00:003064672-12.8-14.125033
2010-03-01T00:003093670-12.9-14.124932
2010-03-01T00:003116668-13.0-14.024932
2010-03-01T00:003137666-13.1-14.124832
2010-03-01T00:003160664-13.1-14.124832
2010-03-01T00:003192661-13.3-14.524832
2010-03-01T00:003223658-13.4-14.624732
2010-03-01T00:003251656-13.6-14.824732
2010-03-01T00:003274654-13.8-14.824632
2010-03-01T00:003302651-13.9-15.124631
2010-03-01T00:003331649-14.124731
2010-03-01T00:003352647-14.124731
2010-03-01T00:003377645-14.2-15.224831
2010-03-01T00:003404643-14.3-15.424930
2010-03-01T00:003434640-14.5-15.624929
2010-03-01T00:003459638-14.6-15.724829
2010-03-01T00:003484636-14.8-15.924828
2010-03-01T00:003508634-14.8-15.924828
2010-03-01T00:003531632-14.9-16.024728
2010-03-01T00:003554630-15.1-16.124728
2010-03-01T00:003580628-15.3-16.224628
2010-03-01T00:003607626-15.5-16.224528
2010-03-01T00:003633624-15.8-16.524428
2010-03-01T00:003663621-15.8-16.724428
2010-03-01T00:003689619-16.0-17.024328
2010-03-01T00:003715617-16.2-17.224329
2010-03-01T00:003738615-16.3-17.224229
2010-03-01T00:003766613-16.5-17.324229
2010-03-01T00:003791611-16.8-17.524229
2010-03-01T00:003814609-16.8-17.724229
2010-03-01T00:003839607-16.8-18.224229
2010-03-01T00:003865605-16.8-18.424229
2010-03-01T00:003890603-16.8-18.824229
2010-03-01T00:003913601-16.9-18.824229
2010-03-01T00:003939599-17.1-18.824229
2010-03-01T00:003963597-17.3-19.024229
2010-03-01T00:003985595-17.4-19.024229
2010-03-01T00:004017593-17.5-19.124229
2010-03-01T00:004049590-17.7-19.424129
2010-03-01T00:004077588-17.6-19.824029
2010-03-01T00:004100586-17.7-20.423929
2010-03-01T00:004127584-17.7-21.423928
2010-03-01T00:004154582-17.8-21.724028
2010-03-01T00:004175580-18.0-21.724128
2010-03-01T00:004197578-18.1-21.824127
2010-03-01T00:004222577-18.1-22.124027
2010-03-01T00:004250574-18.1-22.123926
2010-03-01T00:004275572-18.2-22.223826
2010-03-01T00:004304570-18.423825
2010-03-01T00:004329568-18.5-22.523724
2010-03-01T00:004353566-18.7-22.623624
2010-03-01T00:004373565-18.7-23.023624
2010-03-01T00:004394563-18.8-23.323524
2010-03-01T00:004418562-19.0-23.423624
2010-03-01T00:004444560-19.1-23.723724
2010-03-01T00:004476557-19.3-24.123924
2010-03-01T00:004508555-19.2-24.324023
2010-03-01T00:004531553-19.3-24.524023
2010-03-01T00:004556551-19.4-24.824022
2010-03-01T00:004583549-19.4-25.523922
2010-03-01T00:004616547-19.7-26.023723
2010-03-01T00:004649544-19.9-26.223623
2010-03-01T00:004681542-20.3-26.723623
2010-03-01T00:004709540-20.5-27.123624
2010-03-01T00:004745537-20.9-27.923524
2010-03-01T00:004777535-21.2-27.823524
2010-03-01T00:004808533-21.4-28.023524
2010-03-01T00:004837531-21.7-28.123524
2010-03-01T00:004871528-22.1-28.123424
2010-03-01T00:004899526-22.4-28.223424
2010-03-01T00:004928524-22.6-28.023324
2010-03-01T00:004956522-22.9-27.823225
2010-03-01T00:004980520-23.1-27.723125
2010-03-01T00:005007519-23.4-28.023125
2010-03-01T00:005035517-23.7-28.023125
2010-03-01T00:005064515-24.0-28.123125
2010-03-01T00:005095512-24.3-28.323125
2010-03-01T00:005124510-24.6-29.023125
2010-03-01T00:005151508-24.9-30.423125
2010-03-01T00:005176507-25.1-30.623125
2010-03-01T00:005203505-25.4-30.923025
2010-03-01T00:005226503-25.6-30.822925
2010-03-01T00:005249502-25.8-30.922825
2010-03-01T00:005277500-26.0-31.322626
2010-03-01T00:005311497-26.4-31.422526
2010-03-01T00:005339495-26.4-32.422326
2010-03-01T00:005366494-26.3-36.022227
2010-03-01T00:005397491-26.6-38.022127
2010-03-01T00:005427489-26.2-43.122128
2010-03-01T00:005455488-26.0-49.922128
2010-03-01T00:005484486-26.0-54.322127
2010-03-01T00:005520483-26.0-56.522127
2010-03-01T00:005545481-26.1-56.622126
2010-03-01T00:005569480-26.3-56.822125
2010-03-01T00:005593478-26.5-56.922025
2010-03-01T00:005618477-26.5-56.921925
2010-03-01T00:005658474-26.6-60.021925
2010-03-01T00:005690472-26.5-60.022026
2010-03-01T00:005711470-26.6-60.022026
2010-03-01T00:005734469-26.7-60.122227
2010-03-01T00:005760467-26.9-60.322328
2010-03-01T00:005785466-27.1-60.422428
2010-03-01T00:005811464-27.2-60.522528
2010-03-01T00:005833463-27.4-60.622528
2010-03-01T00:005856461-27.6-60.822628
2010-03-01T00:005881460-27.8-60.922627
2010-03-01T00:005913458-28.1-61.222527
2010-03-01T00:005936456-28.3-61.322427
2010-03-01T00:005962454-28.5-61.522327
2010-03-01T00:005982453-28.7-61.622328
2010-03-01T00:006004452-28.7-61.622229
2010-03-01T00:006028450-28.9-61.822230
2010-03-01T00:006053449-29.1-61.922131
2010-03-01T00:006073447-29.1-61.922131
2010-03-01T00:006093446-29.1-61.922031
2010-03-01T00:006113445-29.2-62.021931
2010-03-01T00:006132444-29.4-62.121931
2010-03-01T00:006157442-29.6-62.321931
2010-03-01T00:006187440-29.8-59.521931
2010-03-01T00:006216438-30.1-59.721931
2010-03-01T00:006239437-30.3-59.822031
2010-03-01T00:006259436-30.5-60.022031
2010-03-01T00:006279435-30.6-60.122131
2010-03-01T00:006300433-30.7-60.222132
2010-03-01T00:006321432-30.9-60.322132
2010-03-01T00:006343431-31.1-60.522232
2010-03-01T00:006366429-31.2-60.522232
2010-03-01T00:006392428-31.2-60.522232
2010-03-01T00:006426426-31.4-60.722132
2010-03-01T00:006461424-31.4-60.722132
2010-03-01T00:006487422-31.6-60.822032
2010-03-01T00:006509421-31.8-61.021932
2010-03-01T00:006531419-31.9-61.121931
2010-03-01T00:006552418-32.0-61.221931
2010-03-01T00:006572417-32.0-64.121931
2010-03-01T00:006593416-32.1-64.221931
2010-03-01T00:006615414-32.3-64.321930
2010-03-01T00:006637413-32.5-64.521930
2010-03-01T00:006661412-32.7-64.622029
2010-03-01T00:006689410-32.9-64.822029
2010-03-01T00:006719408-33.1-62.022028
2010-03-01T00:006747407-33.2-62.122128
2010-03-01T00:006774405-33.5-62.322128
2010-03-01T00:006797404-33.7-62.522128
2010-03-01T00:006821403-33.9-62.622028
2010-03-01T00:006851401-34.0-62.722028
2010-03-01T00:006881399-33.9-65.522129
2010-03-01T00:006917397-34.1-65.722129
2010-03-01T00:006948395-34.2-65.722129
2010-03-01T00:006977394-34.4-65.922229
2010-03-01T00:007003392-34.4-65.922229
2010-03-01T00:007025391-34.4-65.922129
2010-03-01T00:007045390-34.6-66.022129
2010-03-01T00:007067389-34.7-66.122029
2010-03-01T00:007088387-34.9-66.322029
2010-03-01T00:007111386-35.0-66.322029
2010-03-01T00:007134385-35.2-66.522029
2010-03-01T00:007157384-35.4-66.622030
2010-03-01T00:007179382-35.6-66.822030
2010-03-01T00:007201381-35.8-66.922030
2010-03-01T00:007221380-35.9-67.022030
2010-03-01T00:007241379-36.0-67.122030
2010-03-01T00:007260378-36.0-67.122130
2010-03-01T00:007280377-36.0-67.122130
2010-03-01T00:007301376-36.0-67.122130
2010-03-01T00:007323375-36.1-67.222130
2010-03-01T00:007344373-36.2-67.322130
2010-03-01T00:007365372-36.3-67.322031
2010-03-01T00:007389371-36.5-67.522031
2010-03-01T00:007417369-36.7-67.622031
2010-03-01T00:007442368-36.9-67.822032
2010-03-01T00:007463367-37.0-67.922032
2010-03-01T00:007481366-37.0-67.922032
2010-03-01T00:007498365-37.1-67.922032
2010-03-01T00:007517364-37.2-68.022032
2010-03-01T00:007537363-37.2-68.022032
2010-03-01T00:007555362-37.3-68.122032
2010-03-01T00:007574361-37.4-68.222033
2010-03-01T00:007593360-37.5-68.222033
2010-03-01T00:007612359-37.5-68.222033
2010-03-01T00:007632358-37.7-68.422133
2010-03-01T00:007652357-37.8-68.522133
2010-03-01T00:007672356-37.9-68.522033
2010-03-01T00:007702355-37.9-65.722033
2010-03-01T00:007732353-37.8-65.721934
2010-03-01T00:007762351-38.1-65.921934
2010-03-01T00:007787350-38.3-66.021835
2010-03-01T00:007811349-38.5-66.221835
2010-03-01T00:007840347-38.7-66.421735
2010-03-01T00:007872346-39.0-66.621635
2010-03-01T00:007904344-39.0-66.621635
2010-03-01T00:007923343-39.1-66.721636
2010-03-01T00:007939342-39.2-66.721636
2010-03-01T00:007957342-39.3-66.821636
2010-03-01T00:007976341-39.3-66.821736
2010-03-01T00:007994340-39.5-67.021736
2010-03-01T00:008013339-39.6-67.121736
2010-03-01T00:008031338-39.8-67.221836
2010-03-01T00:008048337-39.9-67.321836
2010-03-01T00:008067336-39.9-67.321837
2010-03-01T00:008086335-40.0-67.421837
2010-03-01T00:008104334-40.1-67.521837
2010-03-01T00:008123333-40.2-67.521937
2010-03-01T00:008142332-40.3-67.621937
2010-03-01T00:008161332-40.4-67.721937
2010-03-01T00:008179331-40.6-67.821937
2010-03-01T00:008198330-40.7-67.922037
2010-03-01T00:008219329-40.6-67.822037
2010-03-01T00:008245327-40.7-67.922137
2010-03-01T00:008269326-40.9-68.122137
2010-03-01T00:008302325-41.1-68.222236
2010-03-01T00:008330323-41.3-68.422236
2010-03-01T00:008353322-41.3-68.422336
2010-03-01T00:008373321-41.4-68.522435
2010-03-01T00:008396320-41.5-68.522435
2010-03-01T00:008419319-41.7-68.722434
2010-03-01T00:008440318-41.8-68.822534
2010-03-01T00:008462317-42.0-68.922534
2010-03-01T00:008486316-42.2-69.122533
2010-03-01T00:008508315-42.4-69.222633
2010-03-01T00:008530314-42.4-69.222633
2010-03-01T00:008552313-42.6-69.422632
2010-03-01T00:008574312-42.7-69.522632
2010-03-01T00:008596311-42.8-69.622732
2010-03-01T00:008617310-42.9-69.622731
2010-03-01T00:008639309-43.0-69.722731
2010-03-01T00:008661308-43.2-69.922730
2010-03-01T00:008683307-43.2-69.922730
2010-03-01T00:008705306-43.3-70.022730
2010-03-01T00:008726305-43.4-70.022729
2010-03-01T00:008749304-43.5-70.122729
2010-03-01T00:008770303-43.6-70.222628
2010-03-01T00:008793302-43.8-70.322628
2010-03-01T00:008816301-43.8-70.322628
2010-03-01T00:008839300-43.9-70.422527
2010-03-01T00:008862299-44.0-70.522527
2010-03-01T00:008886298-44.1-70.622526
2010-03-01T00:008907297-44.3-70.722426
2010-03-01T00:008929296-44.4-70.822426
2010-03-01T00:008950295-44.5-70.922426
2010-03-01T00:008972294-44.6-71.022325
2010-03-01T00:008994293-44.8-71.122225
2010-03-01T00:009015292-45.0-71.322225
2010-03-01T00:009038291-45.1-71.422124
2010-03-01T00:009060290-45.2-71.422024
2010-03-01T00:009084289-45.2-71.421923
2010-03-01T00:009124287-45.3-71.521723
2010-03-01T00:009153286-45.5-71.721522
2010-03-01T00:009184285-45.7-71.821322
2010-03-01T00:009213284-45.9-72.021122
2010-03-01T00:009247282-46.2-72.220822
2010-03-01T00:009274281-46.3-70.420623
2010-03-01T00:009312279-46.6-70.620423
2010-03-01T00:009343278-46.7-70.720223
2010-03-01T00:009379277-47.0-71.020123
2010-03-01T00:009400276-47.1-71.019923
2010-03-01T00:009423275-47.3-71.219823
2010-03-01T00:009443274-47.3-71.219823
2010-03-01T00:009462273-47.4-71.319823
2010-03-01T00:009483272-47.6-71.419823
2010-03-01T00:009503271-47.6-69.919923
2010-03-01T00:009523271-47.6-69.919923
2010-03-01T00:009543270-47.7-70.019923
2010-03-01T00:009564269-47.9-70.219924
2010-03-01T00:009585268-48.0-70.319924
2010-03-01T00:009617267-48.1-70.420024
2010-03-01T00:009655265-48.3-70.520125
2010-03-01T00:009680264-48.6-70.820425
2010-03-01T00:009712263-48.8-70.920626
2010-03-01T00:009738262-49.1-69.920927
2010-03-01T00:009767261-49.3-70.121028
2010-03-01T00:009790260-49.1-69.921228
2010-03-01T00:009809259-49.0-69.921328
2010-03-01T00:009839258-47.7-70.021528
2010-03-01T00:009870257-47.5-69.921629
2010-03-01T00:009909255-47.8-71.621829
2010-03-01T00:009943254-48.0-71.822030
2010-03-01T00:009970253-48.1-71.822130
2010-03-01T00:009992252-48.3-72.022331
2010-03-01T00:0010011251-48.2-71.922431
2010-03-01T00:0010032250-48.3-72.022631
2010-03-01T00:0010055250-48.3-72.022731
2010-03-01T00:0010077249-48.4-72.122832
2010-03-01T00:0010099248-48.5-72.222932
2010-03-01T00:0010118247-48.6-72.223032
2010-03-01T00:0010138246-48.7-74.223133
2010-03-01T00:0010157246-48.7-74.223333
2010-03-01T00:0010176245-48.7-74.223433
2010-03-01T00:0010197244-48.8-74.323533
2010-03-01T00:0010220243-48.6-74.123633
2010-03-01T00:0010241243-48.1-73.723732
2010-03-01T00:0010263242-47.9-73.623832
2010-03-01T00:0010286241-48.0-73.623931
2010-03-01T00:0010307240-47.9-73.624030
2010-03-01T00:0010330239-47.8-73.524229
2010-03-01T00:0010356238-47.7-76.024328
2010-03-01T00:0010380238-47.3-75.724427
2010-03-01T00:0010401237-47.2-75.624526
2010-03-01T00:0010423236-47.2-75.624626
2010-03-01T00:0010444235-46.8-75.324725
2010-03-01T00:0010464235-46.7-75.224724
2010-03-01T00:0010485234-46.5-75.124724
2010-03-01T00:0010506233-46.5-75.124723
2010-03-01T00:0010525232-46.6-75.224623
2010-03-01T00:0010544232-46.7-79.624622
2010-03-01T00:0010566231-46.7-79.624621
2010-03-01T00:0010587230-46.8-79.624521
2010-03-01T00:0010606230-46.8-79.624520
2010-03-01T00:0010627229-46.9-79.724520
2010-03-01T00:0010646228-46.9-79.724519
2010-03-01T00:0010666228-46.9-79.724419
2010-03-01T00:0010686227-47.0-79.824419
2010-03-01T00:0010705226-47.0-79.824319
2010-03-01T00:0010724226-46.9-79.724119
2010-03-01T00:0010743225-46.8-79.624019
2010-03-01T00:0010762224-46.7-79.623819
2010-03-01T00:0010781224-46.6-79.523619
2010-03-01T00:0010801223-46.5-79.423419
2010-03-01T00:0010820222-46.4-79.323319
2010-03-01T00:0010839222-46.4-79.323319
2010-03-01T00:0010858221-46.2-79.223219
2010-03-01T00:0010877220-46.0-79.123219
2010-03-01T00:0010897220-45.9-79.023119
2010-03-01T00:0010916219-45.8-78.923019
2010-03-01T00:0010935218-46.0-79.122919
2010-03-01T00:0010955218-46.1-79.122919
2010-03-01T00:0010974217-46.2-79.222919
2010-03-01T00:0010994217-46.2-79.223019
2010-03-01T00:0011014216-46.1-79.123220
2010-03-01T00:0011033215-46.1-79.123320
2010-03-01T00:0011052215-46.2-79.223520
2010-03-01T00:0011072214-46.2-79.223720
2010-03-01T00:0011091213-46.2-79.223821
2010-03-01T00:0011111213-46.3-79.324021
2010-03-01T00:0011130212-46.2-79.224221
2010-03-01T00:0011147212-46.1-79.124321
2010-03-01T00:0011167211-46.1-79.124322
2010-03-01T00:0011185210-46.1-79.124422
2010-03-01T00:0011204210-46.1-79.124422
2010-03-01T00:0011224209-46.0-79.124422
2010-03-01T00:0011242209-46.0-79.124422
2010-03-01T00:0011261208-46.0-79.124422
2010-03-01T00:0011279207-46.1-79.124523
2010-03-01T00:0011300207-46.2-79.224623
2010-03-01T00:0011320206-46.2-79.224723
2010-03-01T00:0011340206-46.1-79.124823
2010-03-01T00:0011359205-46.2-79.224924
2010-03-01T00:0011378204-46.2-79.224924
2010-03-01T00:0011397204-46.2-79.225025
2010-03-01T00:0011416203-46.1-79.125025
2010-03-01T00:0011435203-46.1-79.125025
2010-03-01T00:0011455202-46.1-79.125025
2010-03-01T00:0011474201-46.1-79.125025
2010-03-01T00:0011493201-46.2-79.225024
2010-03-01T00:0011512200-46.3-79.325024
2010-03-01T00:0011532200-46.3-79.325024
2010-03-01T00:0011552199-46.3-79.325024
2010-03-01T00:0011571199-46.4-79.325124
2010-03-01T00:0011591198-46.4-79.325224
2010-03-01T00:0011609197-46.1-79.125225
2010-03-01T00:0011630197-46.1-79.125325
2010-03-01T00:0011650196-46.0-79.125325
2010-03-01T00:0011670196-46.0-79.125325
2010-03-01T00:0011690195-46.0-79.125325
2010-03-01T00:0011709194-46.1-79.125225
2010-03-01T00:0011730194-46.2-79.225125
2010-03-01T00:0011751193-46.2-79.225025
2010-03-01T00:0011771193-46.3-79.324925
2010-03-01T00:0011791192-46.3-79.324825
2010-03-01T00:0011810192-46.2-79.224725
2010-03-01T00:0011830191-46.0-79.124625
2010-03-01T00:0011853190-45.9-79.024525
2010-03-01T00:0011873190-45.9-79.024525
2010-03-01T00:0011894189-46.0-79.124425
2010-03-01T00:0011915189-46.1-79.124425
2010-03-01T00:0011936188-46.3-79.324525
2010-03-01T00:0011957187-46.4-79.324525
2010-03-01T00:0011978187-46.5-79.424525
2010-03-01T00:0011998186-46.3-79.324625
2010-03-01T00:0012019186-46.3-79.324725
2010-03-01T00:0012040185-46.4-79.324825
2010-03-01T00:0012061184-46.6-79.524925
2010-03-01T00:0012079184-46.6-79.525025
2010-03-01T00:0012098183-46.7-79.625225
2010-03-01T00:0012119183-46.8-79.625325
2010-03-01T00:0012139182-46.9-79.725425
2010-03-01T00:0012160182-47.1-79.925525
2010-03-01T00:0012182181-47.2-79.925525
2010-03-01T00:0012205180-47.1-79.925624
2010-03-01T00:0012225180-47.2-79.925624
2010-03-01T00:0012244179-47.1-79.925624
2010-03-01T00:0012264179-47.1-79.925624
2010-03-01T00:0012284178-47.1-79.925625
2010-03-01T00:0012304178-47.3-80.025525
2010-03-01T00:0012323177-47.4-80.125425
2010-03-01T00:0012342177-47.5-80.225425
2010-03-01T00:0012362176-47.6-80.225325
2010-03-01T00:0012381176-47.8-80.425225
2010-03-01T00:0012401175-47.9-80.425225
2010-03-01T00:0012421175-48.0-80.525125
2010-03-01T00:0012441174-48.1-80.625126
2010-03-01T00:0012460174-48.2-80.725026
2010-03-01T00:0012481173-48.2-80.725027
2010-03-01T00:0012501173-48.1-80.625027
2010-03-01T00:0012520172-48.0-80.525128
2010-03-01T00:0012539172-47.8-80.425128
2010-03-01T00:0012558171-47.6-80.225229
2010-03-01T00:0012578171-47.2-79.925329
2010-03-01T00:0012597170-47.1-79.925429
2010-03-01T00:0012616170-47.2-79.925529
2010-03-01T00:0012636169-47.2-79.925628
2010-03-01T00:0012655169-47.2-79.925628
2010-03-01T00:0012675168-47.2-79.925628
2010-03-01T00:0012694168-47.1-79.925628
2010-03-01T00:0012715167-47.2-79.925628
2010-03-01T00:0012735167-47.3-80.025527
2010-03-01T00:0012755166-47.5-80.225527
2010-03-01T00:0012776166-47.6-80.225526
2010-03-01T00:0012797165-47.7-80.325526
2010-03-01T00:0012817165-47.9-80.425426
2010-03-01T00:0012838164-48.0-80.525426
2010-03-01T00:0012859163-48.0-80.525426
2010-03-01T00:0012880163-47.8-80.425526
2010-03-01T00:0012900162-47.9-80.425525
2010-03-01T00:0012921162-48.0-80.525625
2010-03-01T00:0012944161-48.1-80.625625
2010-03-01T00:0012965161-48.2-80.725626
2010-03-01T00:0012988160-48.2-80.725626
2010-03-01T00:0013009160-48.2-80.725626
2010-03-01T00:0013031159-48.1-80.625626
2010-03-01T00:0013052159-48.2-80.725626
2010-03-01T00:0013074158-48.3-80.725725
2010-03-01T00:0013095158-48.3-80.725725
2010-03-01T00:0013117157-48.5-80.925825
2010-03-01T00:0013139157-48.7-81.025825
2010-03-01T00:0013159156-48.825825
2010-03-01T00:0013182156-48.5-80.925725
2010-03-01T00:0013205155-48.5-80.925724
2010-03-01T00:0013225155-48.6-81.025724
2010-03-01T00:0013249154-48.7-81.025824
2010-03-01T00:0013274153-48.4-80.825824
2010-03-01T00:0013299153-48.5-80.925924
2010-03-01T00:0013324152-48.7-81.026024
2010-03-01T00:0013344152-48.9-81.226024
2010-03-01T00:0013367151-49.0-81.326124
2010-03-01T00:0013388151-49.2-81.426124
2010-03-01T00:0013409150-49.4-81.626224
2010-03-01T00:0013430150-49.5-81.626224
2010-03-01T00:0013451149-49.6-81.726324
2010-03-01T00:0013472149-49.7-81.826324
2010-03-01T00:0013493148-49.5-81.626324
2010-03-01T00:0013513148-49.3-81.526224
2010-03-01T00:0013532148-49.1-81.326224
2010-03-01T00:0013552147-49.3-81.526124
2010-03-01T00:0013572147-49.2-81.425924
2010-03-01T00:0013592146-49.0-81.325824
2010-03-01T00:0013613146-49.1-81.325724
2010-03-01T00:0013633145-49.2-81.425524
2010-03-01T00:0013653145-49.4-81.625424
2010-03-01T00:0013672144-49.4-81.625325
2010-03-01T00:0013691144-49.5-81.625225
2010-03-01T00:0013710144-49.6-81.725125
2010-03-01T00:0013730143-49.7-81.825025
2010-03-01T00:0013750143-49.8-81.824925
2010-03-01T00:0013769142-49.8-81.824925
2010-03-01T00:0013789142-49.8-81.824925
2010-03-01T00:0013809141-49.6-81.724925
2010-03-01T00:0013828141-49.5-81.624925
2010-03-01T00:0013846141-49.4-81.625025
2010-03-01T00:0013866140-49.3-81.525025
2010-03-01T00:0013886140-49.3-81.524925
2010-03-01T00:0013905139-49.1-81.324925
2010-03-01T00:0013926139-49.1-81.324925
2010-03-01T00:0013947138-48.9-81.225025
2010-03-01T00:0013967138-48.2-80.725125
2010-03-01T00:0013987138-48.1-80.625225
2010-03-01T00:0014008137-48.1-80.625425
2010-03-01T00:0014028137-48.1-80.625525
2010-03-01T00:0014050136-48.1-80.625726
2010-03-01T00:0014071136-48.1-80.625826
2010-03-01T00:0014092135-48.1-80.625926
2010-03-01T00:0014115135-48.0-80.525926
2010-03-01T00:0014138135-48.0-80.525926
2010-03-01T00:0014160134-48.1-80.625926
2010-03-01T00:0014184134-48.2-80.725826
2010-03-01T00:0014208133-48.2-80.725826
2010-03-01T00:0014231133-48.3-80.725726
2010-03-01T00:0014254132-48.5-80.925626
2010-03-01T00:0014277132-48.7-81.025526
2010-03-01T00:0014302131-48.9-81.225426
2010-03-01T00:0014327131-49.2-81.425426
2010-03-01T00:0014351130-49.3-81.525325
2010-03-01T00:0014374130-49.5-81.625325
2010-03-01T00:0014397129-49.5-81.625425
2010-03-01T00:0014421129-49.5-81.625425
2010-03-01T00:0014446128-49.6-81.725525
2010-03-01T00:0014469128-49.8-81.825625
2010-03-01T00:0014493127-50.0-82.025725
2010-03-01T00:0014516127-50.1-82.125725
2010-03-01T00:0014539127-50.2-82.125725
2010-03-01T00:0014563126-50.3-82.225724
2010-03-01T00:0014586126-50.525724
2010-03-01T00:0014609125-50.6-82.425824
2010-03-01T00:0014634125-50.6-82.425823
2010-03-01T00:0014656124-50.6-82.425723
2010-03-01T00:0014679124-50.6-82.425722
2010-03-01T00:0014702123-50.6-82.425522
2010-03-01T00:0014726123-50.6-82.425321
2010-03-01T00:0014750123-50.7-82.525121
2010-03-01T00:0014774122-50.7-82.525021
2010-03-01T00:0014797122-50.9-82.724920
2010-03-01T00:0014820121-51.0-82.724920
2010-03-01T00:0014841121-50.8-82.625020
2010-03-01T00:0014864120-50.6-82.425220
2010-03-01T00:0014886120-50.4-82.325420
2010-03-01T00:0014908120-50.4-82.325520
2010-03-01T00:0014931119-50.6-82.425620
2010-03-01T00:0014953119-50.8-82.625620
2010-03-01T00:0014975118-51.0-82.725720
2010-03-01T00:0014998118-51.3-82.925720
2010-03-01T00:0015020118-51.5-83.125721
2010-03-01T00:0015043117-51.7-83.225821
2010-03-01T00:0015064117-51.8-83.325821
2010-03-01T00:0015088116-52.1-83.525822
2010-03-01T00:0015109116-52.3-83.725822
2010-03-01T00:0015130116-52.4-83.825822
2010-03-01T00:0015151115-52.5-83.825823
2010-03-01T00:0015171115-52.5-83.825823
2010-03-01T00:0015192114-52.6-83.925823
2010-03-01T00:0015213114-52.7-84.025822
2010-03-01T00:0015237114-52.9-84.125922
2010-03-01T00:0015259113-53.0-84.225921
2010-03-01T00:0015281113-53.1-84.325921
2010-03-01T00:0015306112-53.1-84.326020
2010-03-01T00:0015327112-53.2-84.426019
2010-03-01T00:0015352112-53.4-84.526019
2010-03-01T00:0015377111-53.5-84.626018
2010-03-01T00:0015401111-53.7-84.726018
2010-03-01T00:0015425110-53.9-84.926017
2010-03-01T00:0015446110-54.0-84.926017
2010-03-01T00:0015467110-54.1-85.026016
2010-03-01T00:0015490109-54.1-85.026016
2010-03-01T00:0015512109-54.2-85.126116
2010-03-01T00:0015535109-54.2-85.126216
2010-03-01T00:0015559108-54.3-85.226417
2010-03-01T00:0015586108-54.2-85.126617
2010-03-01T00:0015618107-54.1-85.026818
2010-03-01T00:0015641107-54.2-85.126919
2010-03-01T00:0015663106-54.0-84.926920
2010-03-01T00:0015683106-54.1-85.027020
2010-03-01T00:0015706106-54.3-85.227021
2010-03-01T00:0015728105-54.4-85.227121
2010-03-01T00:0015750105-54.4-85.227221
2010-03-01T00:0015772105-54.5-85.327321
2010-03-01T00:0015794104-54.5-85.327521
2010-03-01T00:0015818104-54.6-85.427521
2010-03-01T00:0015845103-54.5-85.327620
2010-03-01T00:0015874103-54.4-85.227619
2010-03-01T00:0015906102-54.5-85.327618
2010-03-01T00:0015933102-54.6-85.427617
2010-03-01T00:0015958102-54.7-85.527616
2010-03-01T00:0015981101-54.8-85.527416
2010-03-01T00:0016008101-55.0-85.727315
2010-03-01T00:0016033100-55.0-85.727114
2010-03-01T00:0016053100-54.8-85.526914
2010-03-01T00:0016074100-54.9-85.626714
2010-03-01T00:001609699-54.9-85.626614
2010-03-01T00:001611899-55.0-85.726514
2010-03-01T00:001614099-55.1-85.826414
2010-03-01T00:001616298-55.2-85.826314
2010-03-01T00:001618498-55.3-85.926115
2010-03-01T00:001620698-55.3-85.925915
2010-03-01T00:001622997-55.3-85.925715
2010-03-01T00:001625197-55.2-85.825415
2010-03-01T00:001627397-55.1-85.825215
2010-03-01T00:001629696-54.9-85.625015
2010-03-01T00:001631896-54.9-85.624815
2010-03-01T00:001634196-55.0-85.724615
2010-03-01T00:001636395-55.0-85.724515
2010-03-01T00:001638595-55.0-85.724416
2010-03-01T00:001640795-55.0-85.724416
2010-03-01T00:001642894-55.1-85.824316
2010-03-01T00:001644994-55.1-85.824317
2010-03-01T00:001647394-55.1-85.824318
2010-03-01T00:001649593-55.2-85.824319
2010-03-01T00:001651693-55.1-85.824419
2010-03-01T00:001653993-54.9-85.624520
2010-03-01T00:001656192-54.6-85.424621
2010-03-01T00:001658492-54.3-85.224721
2010-03-01T00:001660592-54.3-85.224722
2010-03-01T00:001662891-54.4-85.224822
2010-03-01T00:001665091-54.5-85.324823
2010-03-01T00:001667391-54.4-85.224924
2010-03-01T00:001669691-54.4-85.224925
2010-03-01T00:001672090-54.5-85.324925
2010-03-01T00:001674390-54.5-85.325026
2010-03-01T00:001676590-54.5-85.325027
2010-03-01T00:001678889-54.3-85.225128
2010-03-01T00:001681189-54.1-85.025228
2010-03-01T00:001683589-54.2-85.125328
2010-03-01T00:001685888-54.2-85.125427
2010-03-01T00:001688788-53.9-84.925526
2010-03-01T00:001691487-53.0-84.225525
2010-03-01T00:001694287-52.9-84.125524
2010-03-01T00:001697087-53.1-84.325523
2010-03-01T00:001699686-53.3-84.425523
2010-03-01T00:001702286-53.4-84.525422
2010-03-01T00:001704886-53.6-84.625521
2010-03-01T00:001707585-53.8-84.825621
2010-03-01T00:001709885-54.0-84.925721
2010-03-01T00:001712285-54.1-85.025920
2010-03-01T00:001714484-53.9-84.926020
2010-03-01T00:001716784-53.9-84.926219
2010-03-01T00:001718984-53.9-84.926419
2010-03-01T00:001721184-53.9-84.926619
2010-03-01T00:001723483-54.0-84.926718
2010-03-01T00:001725683-53.8-84.826818
2010-03-01T00:001727883-53.8-84.827017
2010-03-01T00:001730382-53.8-84.827116
2010-03-01T00:001732982-53.4-84.527215
2010-03-01T00:001735482-53.2-84.427314
2010-03-01T00:001737781-53.0-84.227314
2010-03-01T00:001740081-53.2-84.427213
2010-03-01T00:001742381-53.3-84.426912
2010-03-01T00:001744681-53.4-84.526712
2010-03-01T00:001747080-53.6-84.626412
2010-03-01T00:001749180-53.7-84.726011
2010-03-01T00:001751580-53.7-84.725711
2010-03-01T00:001753779-53.9-84.925411
2010-03-01T00:001755979-54.0-84.925211
2010-03-01T00:001758179-54.1-85.025212
2010-03-01T00:001760379-54.1-85.025212
2010-03-01T00:001762678-53.9-84.925213
2010-03-01T00:001764878-53.9-84.925213
2010-03-01T00:001767078-53.8-84.825314
2010-03-01T00:001769278-53.9-84.925315
2010-03-01T00:001771477-54.0-84.925315
2010-03-01T00:001773877-54.1-85.025316
2010-03-01T00:001775977-54.0-84.925416
2010-03-01T00:001778376-54.1-85.025517
2010-03-01T00:001780776-54.3-85.225618
2010-03-01T00:001783176-54.4-85.225718
2010-03-01T00:001785476-54.3-85.225819
2010-03-01T00:001787975-54.4-85.225819
2010-03-01T00:001790375-54.5-85.325919
2010-03-01T00:001792675-54.6-85.426020
2010-03-01T00:001795174-54.4-85.226020
2010-03-01T00:001797474-53.8-84.826019
2010-03-01T00:001799974-53.4-84.526019
2010-03-01T00:001802274-53.5-84.626019
2010-03-01T00:001804573-53.6-84.626018
2010-03-01T00:001807073-53.7-84.726018
2010-03-01T00:001809273-53.7-84.726117
2010-03-01T00:001811773-53.7-84.726117
2010-03-01T00:001814172-53.7-84.726217
2010-03-01T00:001816472-53.6-84.626317
2010-03-01T00:001818872-53.7-84.726416
2010-03-01T00:001821271-54.0-84.926517
2010-03-01T00:001823871-54.2-85.126617
2010-03-01T00:001826371-54.4-85.226717
2010-03-01T00:001828771-54.6-85.426817
2010-03-01T00:001831070-54.8-85.526917
2010-03-01T00:001833470-54.9-85.627017
2010-03-01T00:001835870-55.1-85.827217
2010-03-01T00:001838170-55.3-85.927317
2010-03-01T00:001840469-55.4-86.027417
2010-03-01T00:001842769-55.5-86.127618
2010-03-01T00:001845269-55.6-86.127718
2010-03-01T00:001847569-55.8-86.327918
2010-03-01T00:001850168-55.8-86.328019
2010-03-01T00:001852268-55.6-86.128219
2010-03-01T00:001854368-55.5-86.128320
2010-03-01T00:001856668-55.6-86.128420
2010-03-01T00:001858967-55.5-86.128521
2010-03-01T00:001861167-55.6-86.128721
2010-03-01T00:001863367-55.8-86.328721
2010-03-01T00:001865567-56.0-86.428821
2010-03-01T00:001867766-56.1-86.528921
2010-03-01T00:001869766-56.2-86.629021
2010-03-01T00:001871866-56.1-86.529021
2010-03-01T00:001874066-55.6-86.129120
2010-03-01T00:001876266-55.5-86.129019
2010-03-01T00:001878565-55.5-86.128919
2010-03-01T00:001880565-55.5-86.128818
2010-03-01T00:001882865-55.6-86.128718
2010-03-01T00:001884865-55.6-86.128517
2010-03-01T00:001887064-55.7-86.228417
2010-03-01T00:001889264-55.8-86.328317
2010-03-01T00:001891264-55.9-86.328217
2010-03-01T00:001893364-56.1-86.528117
2010-03-01T00:001895464-56.3-86.628117
2010-03-01T00:001897563-56.3-86.628217
2010-03-01T00:001899563-56.0-86.428416
2010-03-01T00:001901863-55.6-86.128616
2010-03-01T00:001904163-55.6-86.128915
2010-03-01T00:001906463-55.5-86.129215
2010-03-01T00:001908562-55.6-86.129514
2010-03-01T00:001910862-55.7-86.229714
2010-03-01T00:001912862-55.7-86.230014
2010-03-01T00:001915162-55.8-86.330213
2010-03-01T00:001917061-55.7-86.230313
2010-03-01T00:001919261-55.8-86.330412
2010-03-01T00:001921361-55.8-86.330412
2010-03-01T00:001923661-55.8-86.330311
2010-03-01T00:001925761-55.6-86.130211
2010-03-01T00:001927960-55.4-86.030210
2010-03-01T00:001930060-55.4-86.030010
2010-03-01T00:001932260-55.6-86.12999
2010-03-01T00:001934560-55.6-86.12979
2010-03-01T00:001936760-54.7-85.52968
2010-03-01T00:001939059-54.3-85.22948
2010-03-01T00:001941059-54.1-85.02938
2010-03-01T00:001943259-53.9-84.92938
2010-03-01T00:001945459-53.6-84.62947
2010-03-01T00:001947759-53.7-84.72947
2010-03-01T00:001949958-53.7-84.72966
2010-03-01T00:001952158-53.6-84.62976
2010-03-01T00:001954458-53.5-84.62995
2010-03-01T00:001956858-53.5-84.63004
2010-03-01T00:001959058-53.6-84.63004
2010-03-01T00:001961357-53.7-84.72983
2010-03-01T00:001963657-53.9-84.92933
2010-03-01T00:001965957-54.0-84.92863
2010-03-01T00:001968357-54.2-85.12753
2010-03-01T00:001970657-54.4-85.22643
2010-03-01T00:001973056-54.5-85.32513
2010-03-01T00:001975456-54.6-85.42404
2010-03-01T00:001977856-54.6-85.42304
2010-03-01T00:001980156-54.5-85.32235
2010-03-01T00:001982456-54.5-85.32185
2010-03-01T00:001984755-54.5-85.32156
2010-03-01T00:001987155-54.5-85.32147
2010-03-01T00:001989355-54.5-85.32137
2010-03-01T00:001991455-54.6-85.42147
2010-03-01T00:001993755-54.6-85.42148
2010-03-01T00:001995854-54.7-85.52158
2010-03-01T00:001997954-54.7-85.52177
2010-03-01T00:002000354-54.7-85.52197
2010-03-01T00:002002454-54.5-85.32216
2010-03-01T00:002004654-54.5-85.32236
2010-03-01T00:002006853-54.5-85.32256
2010-03-01T00:002009053-54.5-85.32276
2010-03-01T00:002011053-54.5-85.32286
2010-03-01T00:002013453-54.6-85.42296
2010-03-01T00:002015753-54.6-85.42306
2010-03-01T00:002017953-54.8-85.52316
2010-03-01T00:002020252-55.0-85.72326
2010-03-01T00:002022652-55.2-85.82346
2010-03-01T00:002024952-55.2-85.82365
2010-03-01T00:002027352-55.3-85.92385
2010-03-01T00:002029852-55.4-86.02405
2010-03-01T00:002032251-55.5-86.12425
2010-03-01T00:002034451-55.5-86.12445
2010-03-01T00:002036951-55.7-86.22455
2010-03-01T00:002039351-55.9-86.32456
2010-03-01T00:002041851-55.9-86.32456
2010-03-01T00:002044250-56.0-86.42456
2010-03-01T00:002046650-56.1-86.52446
2010-03-01T00:002048850-56.0-86.42436
2010-03-01T00:002051250-56.1-86.52416
2010-03-01T00:002053650-56.1-86.52386
2010-03-01T00:002056049-56.1-86.52356
2010-03-01T00:002058449-56.1-86.52326
2010-03-01T00:002060849-56.0-86.42296
2010-03-01T00:002063249-56.2-86.62286
2010-03-01T00:002065549-56.3-86.62286
2010-03-01T00:002067949-56.5-86.82306
2010-03-01T00:002070448-56.6-86.92317
2010-03-01T00:002072748-56.9-87.12337
2010-03-01T00:002075248-57.1-87.22337
2010-03-01T00:002077648-57.3-87.42347
2010-03-01T00:002079848-57.4-87.52348
2010-03-01T00:002082347-57.4-87.52348
2010-03-01T00:002084947-57.5-87.52347
2010-03-01T00:002087247-57.5-87.52347
2010-03-01T00:002089647-57.5-87.52347
2010-03-01T00:002091847-57.4-87.52346
2010-03-01T00:002094247-57.5-87.52356
2010-03-01T00:002096546-57.4-87.52355
2010-03-01T00:002098846-57.2-87.32365
2010-03-01T00:002101046-57.2-87.32354
2010-03-01T00:002103446-57.0-87.22344
2010-03-01T00:002105946-57.1-87.22293
2010-03-01T00:002108346-57.1-87.22233
2010-03-01T00:002110845-57.1-87.22152
2010-03-01T00:002113445-57.3-87.42062
2010-03-01T00:002115745-57.5-87.51962
2010-03-01T00:002117945-57.7-87.71872
2010-03-01T00:002120345-57.8-87.81772
2010-03-01T00:002122545-57.9-87.81692
2010-03-01T00:002124944-58.1-88.01612
2010-03-01T00:002127344-58.3-88.11543
2010-03-01T00:002129944-58.4-88.21483
2010-03-01T00:002132344-58.5-88.31453
2010-03-01T00:002134344-58.4-88.21463
2010-03-01T00:002136844-58.5-88.31523
2010-03-01T00:002139043-58.5-88.31623
2010-03-01T00:002141543-58.2-88.11734
2010-03-01T00:002143943-57.9-87.81834
2010-03-01T00:002146443-58.0-87.91915
2010-03-01T00:002148943-58.2-88.11975
2010-03-01T00:002151443-58.2-88.12026
2010-03-01T00:002154142-58.4-88.22076
2010-03-01T00:002156342-58.5-88.32137
2010-03-01T00:002158642-58.5-88.32187
2010-03-01T00:002161242-58.4-88.22248
2010-03-01T00:002163842-58.3-88.12308
2010-03-01T00:002166142-58.2-88.12358
2010-03-01T00:002168641-58.2-88.12408
2010-03-01T00:002170841-57.9-87.82447
2010-03-01T00:002173141-57.4-87.52487
2010-03-01T00:002175741-57.2-87.32496
2010-03-01T00:002178141-57.1-87.22506
2010-03-01T00:002180641-57.0-87.22516
2010-03-01T00:002183040-57.0-87.22526
2010-03-01T00:002185340-56.7-86.92546
2010-03-01T00:002187940-56.42566
2010-03-01T00:002190440-56.2-86.62586
2010-03-01T00:002192640-56.1-86.52616
2010-03-01T00:002195140-56.1-86.52635
2010-03-01T00:002197540-56.1-86.52665
2010-03-01T00:002200039-56.1-86.52685
2010-03-01T00:002202439-56.1-86.52695
2010-03-01T00:002205039-56.1-86.52694
2010-03-01T00:002207439-56.1-86.52674
2010-03-01T00:002209739-56.2-86.62644
2010-03-01T00:002211939-56.3-86.62603
2010-03-01T00:002214639-56.42553
2010-03-01T00:002217038-56.5-86.82492
2010-03-01T00:002219438-56.6-86.92432
2010-03-01T00:002222038-56.6-86.92382
2010-03-01T00:002224738-56.6-86.92352
2010-03-01T00:002227038-56.8-87.02342
2010-03-01T00:002229438-57.0-87.22352
2010-03-01T00:002231837-57.0-87.22383
2010-03-01T00:002234337-57.0-87.22413
2010-03-01T00:002236637-57.0-87.22453
2010-03-01T00:002239037-56.9-87.12504
2010-03-01T00:002241537-57.0-87.22554
2010-03-01T00:002244037-57.0-87.22615
2010-03-01T00:002246337-57.0-87.22665
2010-03-01T00:002249036-57.2-87.32705
2010-03-01T00:002251536-57.1-87.22745
2010-03-01T00:002253836-57.0-87.22784
2010-03-01T00:002256536-57.0-87.22814
2010-03-01T00:002259136-56.9-87.12853
2010-03-01T00:002261536-56.9-87.12893
2010-03-01T00:002264036-57.1-87.22932
2010-03-01T00:002266635-57.3-87.42962
2010-03-01T00:002269035-57.5-87.53001
2010-03-01T00:002271535-57.6-87.62981
2010-03-01T00:002274135-57.6-87.600
2010-03-01T00:002276735-57.7-87.700
2010-03-01T00:002279135-57.7-87.700
2010-03-01T00:002281935-57.8-87.800
2010-03-01T00:002284334-57.8-87.83261
2010-03-01T00:002287034-57.8-87.83451
2010-03-01T00:002289834-57.6-87.63571
2010-03-01T00:002292034-57.5-87.581
2010-03-01T00:002294634-57.5-87.5221
2010-03-01T00:002297434-57.5-87.5491
2010-03-01T00:002300034-57.7-87.71021
2010-03-01T00:002302634-57.9-87.81341
2010-03-01T00:002305133-58.1-88.01431
2010-03-01T00:002307933-58.2-88.11462
2010-03-01T00:002310433-58.4-88.21462
2010-03-01T00:002312833-58.6-88.41472
2010-03-01T00:002315633-58.6-88.41492
2010-03-01T00:002317933-58.6-88.41542
2010-03-01T00:002320633-58.7-88.41602
2010-03-01T00:002323232-58.8-88.51682
2010-03-01T00:002325732-58.9-88.61772
2010-03-01T00:002328532-59.0-88.71852
2010-03-01T00:002331032-59.2-88.81932
2010-03-01T00:002333632-59.3-88.92002
2010-03-01T00:002336332-59.4-89.02062
2010-03-01T00:002338932-59.4-89.02092
2010-03-01T00:002341531-59.4-89.02122
2010-03-01T00:002344131-59.4-89.02151
2010-03-01T00:002346531-59.5-89.02181
2010-03-01T00:002349431-59.6-89.12211
2010-03-01T00:002351831-59.6-89.100
2010-03-01T00:002354631-59.7-89.200
2010-03-01T00:002357231-59.7-89.200
2010-03-01T00:002359731-59.6-89.13601
2010-03-01T00:002362530-59.6-89.1781
2010-03-01T00:002364930-59.7-89.2921
2010-03-01T00:002367630-59.9-89.31141
2010-03-01T00:002370230-60.1-89.51341
2010-03-01T00:002372830-60.3-89.61481
2010-03-01T00:002375330-60.5-89.81582
2010-03-01T00:002378130-60.5-89.81662
2010-03-01T00:002380330-60.6-89.81712
2010-03-01T00:002383129-60.8-90.01743
2010-03-01T00:002385729-60.6-89.81763
2010-03-01T00:002388029-60.2-89.51783
2010-03-01T00:002390829-60.1-89.51802
2010-03-01T00:002393329-60.2-89.51832
2010-03-01T00:002395529-60.2-89.51891
2010-03-01T00:002398129-60.2-89.51951
2010-03-01T00:002400429-60.1-89.51991
2010-03-01T00:002402729-59.9-89.31961
2010-03-01T00:002405528-60.0-89.41871
2010-03-01T00:002408028-60.1-89.51761
2010-03-01T00:002410428-60.1-89.51621
2010-03-01T00:002412728-60.2-89.53601
2010-03-01T00:002415328-60.2-89.53601
2010-03-01T00:002417728-60.2-89.5651
2010-03-01T00:002420028-60.1-89.5621
2010-03-01T00:002422528-60.2-89.5691
2010-03-01T00:002424828-60.2-89.5831
2010-03-01T00:002427127-60.2-89.5981
2010-03-01T00:002429527-60.2-89.51091
2010-03-01T00:002432127-60.1-89.51172
2010-03-01T00:002434327-59.8-89.21232
2010-03-01T00:002437127-59.4-89.01262
2010-03-01T00:002439527-59.3-88.91292
2010-03-01T00:002442127-59.3-88.91302
2010-03-01T00:002444227-59.3-88.91302
2010-03-01T00:002446527-59.4-89.01241
2010-03-01T00:002449227-59.4-89.01091
2010-03-01T00:002451626-59.3-88.9821
2010-03-01T00:002454426-59.1-88.7671
2010-03-01T00:002456726-59.1-88.7691
2010-03-01T00:002459126-58.9-88.6762
2010-03-01T00:002461526-58.9-88.6833
2010-03-01T00:002464126-59.0-88.7883
2010-03-01T00:002466726-59.1-88.7914
2010-03-01T00:002469126-59.3-88.9944
2010-03-01T00:002471626-59.5-89.0964
2010-03-01T00:002474325-59.5-89.0984
2010-03-01T00:002476825-59.4-89.0985
2010-03-01T00:002479225-59.2-88.8975
2010-03-01T00:002481725-59.2-88.8955
2010-03-01T00:002484425-59.2-88.8925
2010-03-01T00:002486925-59.0-88.7895
2010-03-01T00:002489425-58.9-88.6865
2010-03-01T00:002491925-58.7-88.4866
2010-03-01T00:002494725-58.6-88.4886
2010-03-01T00:002497325-58.5-88.3926
2010-03-01T00:002499924-58.7-88.4995
2010-03-01T00:002502724-58.6-88.41065
2010-03-01T00:002505324-58.2-88.11145
2010-03-01T00:002507924-58.4-88.21205
2010-03-01T00:002510724-58.5-88.31255
2010-03-01T00:002513424-58.5-88.31285
2010-03-01T00:002516124-58.3-88.11285
2010-03-01T00:002518824-58.2-88.11284
2010-03-01T00:002521324-58.2-88.11274
2010-03-01T00:002523824-58.1-88.01264
2010-03-01T00:002526623-58.1-88.01245
2010-03-01T00:002529523-58.1-88.01235
2010-03-01T00:002532123-58.3-88.11215
2010-03-01T00:002534823-58.3-88.11205
2010-03-01T00:002537723-58.5-88.31195
2010-03-01T00:002540523-58.6-88.41195
2010-03-01T00:002543223-58.6-88.41185
2010-03-01T00:002545623-58.6-88.41165
2010-03-01T00:002548423-58.6-88.41135
2010-03-01T00:002551523-58.8-88.51105
2010-03-01T00:002554222-58.8-88.51075
2010-03-01T00:002556722-58.7-88.41056
2010-03-01T00:002559522-58.3-88.11036
2010-03-01T00:002562622-58.4-88.21027
2010-03-01T00:002565122-58.6-88.41027
2010-03-01T00:002567822-58.8-88.51038
2010-03-01T00:002570122-58.7-88.41048
2010-03-01T00:002572722-58.7-88.41078
2010-03-01T00:002575422-58.7-88.41118
2010-03-01T00:002578122-58.7-88.41159
2010-03-01T00:002580722-58.6-88.41199
2010-03-01T00:002583221-58.7-88.41239
2010-03-01T00:002585821-58.7-88.412510
2010-03-01T00:002588821-58.7-88.412610
2010-03-01T00:002591121-58.8-88.512710
2010-03-01T00:002594021-58.9-88.612810
2010-03-01T00:002596421-59.0-88.71299
2010-03-01T00:002599021-59.2-88.81309
2010-03-01T00:002601721-59.2-88.81319
2010-03-01T00:002604321-59.2-88.81319
2010-03-01T00:002607021-59.1-88.71319
2010-03-01T00:002609521-59.1-88.71319
2010-03-01T00:002611920-59.1-88.713110
2010-03-01T00:002614820-59.0-88.713210
2010-03-01T00:002617420-59.0-88.713410
2010-03-01T00:002619720-59.1-88.71359
2010-03-01T00:002622520-59.1-88.71359
2010-03-01T00:002625020-59.2-88.81359
2010-03-01T00:002627720-59.3-88.91348
2010-03-01T00:002630320-59.4-89.01318
2010-03-01T00:002632820-59.5-89.01267
2010-03-01T00:002635720-59.5-89.01207
2010-03-01T00:002638320-59.5-89.01137
2010-03-01T00:002640820-59.6-89.11067
2010-03-01T00:002643819-59.5-89.01017
2010-03-01T00:002646119-59.3-88.9987
2010-03-01T00:002648719-58.9-88.6967
2010-03-01T00:002650919-58.8-88.5978
2010-03-01T00:002653719-58.8-88.5988
2010-03-01T00:002656219-58.9-88.61018
2010-03-01T00:002658519-58.9-88.61048
2010-03-01T00:002661119-58.8-88.51089
2010-03-01T00:002663919-58.9-88.61129
2010-03-01T00:002666519-59.0-88.71169
2010-03-01T00:002669319-59.0-88.712010
2010-03-01T00:002671919-59.1-88.712310
2010-03-01T00:002674519-59.2-88.812610
2010-03-01T00:002677018-59.3-88.912810
2010-03-01T00:002679718-59.5-89.013110
2010-03-01T00:002682518-59.6-89.113310
2010-03-01T00:002685418-59.7-89.21359
2010-03-01T00:002687918-59.7-89.21369
2010-03-01T00:002690318-59.6-89.11369
2010-03-01T00:002692818-59.5-89.01338
2010-03-01T00:002695618-59.4-89.01298
2010-03-01T00:002698518-59.3-88.91258
2010-03-01T00:002701018-59.0-88.71218
2010-03-01T00:002703518-58.9-88.61197
2010-03-01T00:002706318-58.9-88.61187
2010-03-01T00:002708918-58.9-88.61177
2010-03-01T00:002711917-59.0-88.71167
2010-03-01T00:002714617-59.2-88.81157
2010-03-01T00:002717617-59.3-88.91137
2010-03-01T00:002720017-59.4-89.01116
2010-03-01T00:002722817-59.4-89.01106
2010-03-01T00:002725417-59.4-89.01076
2010-03-01T00:002728517-59.4-89.01046
2010-03-01T00:002730917-59.4-89.01006
2010-03-01T00:002733917-59.5-89.0966
2010-03-01T00:002737117-59.3-88.9937
2010-03-01T00:002739617-59.3-88.9907
2010-03-01T00:002742017-59.3-88.9897
2010-03-01T00:002745117-59.2-88.8878
2010-03-01T00:002748016-59.3-88.9859
2010-03-01T00:002750816-59.3-88.9839
2010-03-01T00:002754016-59.4-89.08110
2010-03-01T00:002756716-59.3-88.97911
2010-03-01T00:002759416-58.9-88.67812
2010-03-01T00:002761916-58.9-88.67712
2010-03-01T00:002764916-58.9-88.67613
2010-03-01T00:002768216-58.7-88.47713
2010-03-01T00:002771016-58.3-88.17813
2010-03-01T00:002773716-58.2-88.18013
2010-03-01T00:002776716-58.4-88.28313
2010-03-01T00:002779116-58.6-88.48613
2010-03-01T00:002782316-58.7-88.48913
2010-03-01T00:002784716-58.8-88.59212
2010-03-01T00:002787415-58.9-88.69512
2010-03-01T00:002790315-59.0-88.79712
2010-03-01T00:002793515-59.1-88.710012
2010-03-01T00:002795715-59.2-88.810312
2010-03-01T00:002798415-59.2-88.810612
2010-03-01T00:002801315-59.1-88.710811
2010-03-01T00:002803715-59.1-88.711111
2010-03-01T00:002806215-59.2-88.811211
2010-03-01T00:002809415-59.3-88.911311
2010-03-01T00:002811815-59.2-88.811311
2010-03-01T00:002814415-59.1-88.711211
2010-03-01T00:002817115-59.3-88.911111
2010-03-01T00:002819715-59.5-89.011011
2010-03-01T00:002823015-59.5-89.010810
2010-03-01T00:002825415-59.6-89.110610
2010-03-01T00:002828115-59.7-89.210410
2010-03-01T00:002830614-59.7-89.210110
2010-03-01T00:002833114-59.7-89.29810
2010-03-01T00:002835614-59.7-89.29610
2010-03-01T00:002838714-59.8-89.29410
2010-03-01T00:002841214-59.7-89.29411
2010-03-01T00:002843714-59.7-89.29411
2010-03-01T00:002846514-59.5-89.09511
2010-03-01T00:002848814-59.3-88.99611
2010-03-01T00:002851414-59.0-88.79710
2010-03-01T00:002854114-58.6-88.49910
2010-03-01T00:002856514-58.6-88.410110
2010-03-01T00:002859014-58.8-88.51049
2010-03-01T00:002861614-59.0-88.71069
2010-03-01T00:002864014-59.2-88.810910
2010-03-01T00:002866614-59.1-88.711010
2010-03-01T00:002869314-59.3-88.911210
2010-03-01T00:002872114-59.4-89.011211
2010-03-01T00:002874613-59.4-89.011211
2010-03-01T00:002877613-59.4-89.011011
2010-03-01T00:002879713-59.3-88.910811
2010-03-01T00:002882613-59.3-88.910611
2010-03-01T00:002884813-59.2-88.810311
2010-03-01T00:002887613-59.1-88.710211
2010-03-01T00:002890013-59.1-88.710012
2010-03-01T00:002893313-59.1-88.710012
2010-03-01T00:002896013-58.8-88.510012
2010-03-01T00:002898113-58.2-88.110012
2010-03-01T00:002900813-58.1-88.010113
2010-03-01T00:002903313-58.0-87.910212
2010-03-01T00:002906213-57.9-87.810412
2010-03-01T00:002908313-57.6-87.610612
2010-03-01T00:002911513-57.4-87.510912
2010-03-01T00:002914013-57.4-87.511211
2010-03-01T00:002916713-57.2-87.311611
2010-03-01T00:002919613-57.0-87.211911
2010-03-01T00:002922312-56.9-87.112311
2010-03-01T00:002924712-56.7-86.912611
2010-03-01T00:002926812-56.8-87.012911
2010-03-01T00:002929712-56.6-86.913012
2010-03-01T00:002932412-56.413112
2010-03-01T00:002935112-56.2-86.613112
2010-03-01T00:002937412-56.0-86.413213
2010-03-01T00:002940412-55.8-86.313213
2010-03-01T00:002943212-55.7-86.213213
2010-03-01T00:002945712-55.6-86.113213
2010-03-01T00:002948112-55.6-86.113213
2010-03-01T00:002950912-55.6-86.113313
2010-03-01T00:002953412-55.7-86.213512
2010-03-01T00:002956312-55.9-86.313712
2010-03-01T00:002959012-56.1-86.513911
2010-03-01T00:002961712-56.3-86.614111
2010-03-01T00:002964312-56.414210
2010-03-01T00:002966712-56.6-86.914410
2010-03-01T00:002969112-56.7-86.91469
2010-03-01T00:002972412-56.9-87.11489
2010-03-01T00:002974812-57.0-87.21509
2010-03-01T00:002977511-57.1-87.21548
2010-03-01T00:002980311-57.2-87.31578
2010-03-01T00:002982711-57.4-87.51607
2010-03-01T00:002985511-57.6-87.61637
2010-03-01T00:002988411-57.7-87.71666
2010-03-01T00:002990911-57.7-87.71695
2010-03-01T00:002993311-57.7-87.71734
2010-03-01T00:002996011-57.7-87.71764
2010-03-01T00:002998911-57.7-87.71793
2010-03-01T00:003001711-57.5-87.51813
2010-03-01T00:003004411-57.2-87.31833
2010-03-01T00:003007211-57.0-87.21843
2010-03-01T00:003010111-56.9-87.11863
2010-03-01T00:003012711-56.9-87.11863
2010-03-01T00:003015711-57.0-87.21863
2010-03-01T00:003017911-57.1-87.21833
2010-03-01T00:003020911-57.1-87.21763
2010-03-01T00:003023311-57.1-87.21653
2010-03-01T00:003026611-57.2-87.31543
2010-03-01T00:003029311-57.3-87.41433
2010-03-01T00:003032311-57.3-87.41364
2010-03-01T00:003035510-57.4-87.51334
2010-03-01T00:003037910-57.5-87.51324
2010-03-01T00:003040510-57.6-87.61334
2010-03-01T00:003043310-57.7-87.71354
2010-03-01T00:003046010-57.8-87.81385
2010-03-01T00:003049710-57.8-87.81405
2010-03-01T00:003052910-57.9-87.81425
2010-03-01T00:003055510-58.0-87.91436
2010-03-01T00:003058510-58.2-88.11436
2010-03-01T00:003061310-58.2-88.11447
2010-03-01T00:003064510-58.3-88.11448
2010-03-01T00:003067310-58.5-88.31458
2010-03-01T00:003070910-58.6-88.41479
2010-03-01T00:003073610-58.7-88.414810
2010-03-01T00:003076310-58.7-88.414911
2010-03-01T00:003079210-58.6-88.415011
2010-03-01T00:003082310-58.6-88.415211
2010-03-01T00:003085310-58.5-88.315411
2010-03-01T00:003088110-58.3-88.115710
2010-03-01T00:003091310-58.0-87.91599
2010-03-01T00:003094410-58.1-88.01629
2010-03-01T00:00309759-58.3-88.11658
2010-03-01T00:00310059-58.3-88.11657
2010-03-01T00:00310369-58.1-88.01647
2010-03-01T00:00310579-58.2-88.11626
2010-03-01T00:00310939-58.1-88.01606
2010-03-01T00:00311189-57.9-87.81596
2010-03-01T00:00311449-57.8-87.81596
2010-03-01T00:00311719-57.8-87.81596
2010-03-01T00:00312009-57.9-87.81605
2010-03-01T00:00312309-58.0-87.91605
2010-03-01T00:00312579-58.2-88.11594
2010-03-01T00:00312849-58.3-88.11554
2010-03-01T00:00313109-58.4-88.21484
2010-03-01T00:00313369-58.6-88.41373
2010-03-01T00:00313729-58.7-88.41264
2010-03-01T00:00313999-58.7-88.41164
2010-03-01T00:00314229-58.5-88.31105
2010-03-01T00:00314459-58.4-88.21075
2010-03-01T00:00314769-58.3-88.11075
2010-03-01T00:00315059-58.1-88.01086
2010-03-01T00:00315309-58.1-88.01106
2010-03-01T00:00315609-58.0-87.91125
2010-03-01T00:00315839-57.9-87.81125
2010-03-01T00:00316049-57.6-87.61135
2010-03-01T00:00316329-57.5-87.51114
2010-03-01T00:00316589-57.4-87.51084
2010-03-01T00:00316898-57.3-87.41023
2010-03-01T00:00317118-57.4-87.5943
2010-03-01T00:00317368-57.5-87.5833
2010-03-01T00:00317658-57.5-87.5743
2010-03-01T00:00317848-57.5-87.5664
2010-03-01T00:00318168-57.3-87.4614
2010-03-01T00:00318458-57.1-87.2575
2010-03-01T00:00318738-57.0-87.2566
2010-03-01T00:00318998-56.9-87.1577
2010-03-01T00:00319308-56.8-87.0598
2010-03-01T00:00319528-56.9-87.1628
2010-03-01T00:00319768-57.0-87.2659
2010-03-01T00:00319998-56.9-87.16710
2010-03-01T00:00320298-56.9-87.17011
2010-03-01T00:00320528-57.0-87.27212
2010-03-01T00:00320788-57.0-87.27312
2010-03-01T00:00321068-56.9-87.17413
2010-03-01T00:00321368-57.0-87.27413
2010-03-01T00:00321658-57.2-87.37513
2010-03-01T00:00321878-57.2-87.37413
2010-03-01T00:00322238-57.3-87.47512
2010-03-01T00:00322568-57.4-87.57512
2010-03-01T00:00322818-57.7-87.77712
2010-03-01T00:00323078-57.8-87.88012
2010-03-01T00:00323348-57.7-87.78312
2010-03-01T00:00323608-57.5-87.58613
2010-03-01T00:00323988-57.3-87.48913
2010-03-01T00:00324228-57.3-87.49113
2010-03-01T00:00324538-57.4-87.59213
2010-03-01T00:00324807-57.3-87.49512
2010-03-01T00:00325077-56.9-87.19812
2010-03-01T00:00325397-56.5-86.810112
2010-03-01T00:00325647-56.3-86.610611
2010-03-01T00:00325977-56.2-86.611011
2010-03-01T00:00326267-56.0-86.411511
2010-03-01T00:00326577-56.1-86.511910
2010-03-01T00:00326847-56.2-86.612210
2010-03-01T00:00327127-56.2-86.612610
2010-03-01T00:00327397-56.2-86.612810
2010-03-01T00:00327647-56.1-86.512910
2010-03-01T00:00327877-56.1-86.513010
2010-03-01T00:00328187-56.1-86.513010
2010-03-01T00:00328517-56.1-86.512911
2010-03-01T00:00328767-56.1-86.512911
2010-03-01T00:00329087-56.1-86.512911
2010-03-01T00:00329347-55.8-86.312911
2010-03-01T00:00329627-55.7-86.212911
2010-03-01T00:00329857-55.9-86.313011
2010-03-01T00:00330137-56.1-86.513010
2010-03-01T00:00330407-56.2-86.613010
2010-03-01T00:00330717-56.3-86.61299
2010-03-01T00:00330957-56.41278
2010-03-01T00:00331177-56.5-86.81238
2010-03-01T00:00331447-56.6-86.91188
2010-03-01T00:00331817-56.7-86.91138
2010-03-01T00:00332057-56.7-86.91108
2010-03-01T00:00332237-56.5-86.81098
2010-03-01T00:00332577-56.6-86.91118
2010-03-01T00:00332897-56.6-86.91129
2010-03-01T00:00333067-56.6-86.91149
2010-03-01T00:00333307-56.6-86.91149
2010-03-01T00:00333657-56.8-87.01139
2010-03-01T00:00333896-56.9-87.11119
2010-03-01T00:00334166-57.0-87.21119
2010-03-01T00:00334486-57.1-87.21119
2010-03-01T00:00334756-57.2-87.31138
2010-03-01T00:00335006-57.3-87.41178
2010-03-01T00:00335276-57.3-87.41228
2010-03-01T00:00335586-57.4-87.51268
2010-03-01T00:00335896-57.5-87.51298
2010-03-01T00:00336166-57.5-87.51318
2010-03-01T00:00336366-57.5-87.51329
2010-03-01T00:00336676-57.3-87.41329
2010-03-01T00:00336976-57.2-87.31329
2010-03-01T00:00337226-57.0-87.21308
2010-03-01T00:00337446-56.8-87.01277
2010-03-01T00:00337736-56.41227
2010-03-01T00:00337936-56.3-86.61136
2010-03-01T00:00338296-56.1-86.51056
2010-03-01T00:00338616-56.1-86.5996
2010-03-01T00:00338926-55.8-86.3986
2010-03-01T00:00339246-55.6-86.11007
2010-03-01T00:00339496-55.3-85.91077
2010-03-01T00:00339766-55.2-85.81147
2010-03-01T00:00340106-54.9-85.61218
2010-03-01T00:00340366-54.5-85.31268
2010-03-01T00:00340576-54.4-85.21298
2010-03-01T00:00340906-54.5-85.31328
2010-03-01T00:00341106-54.5-85.31368
2010-03-01T00:00341366-54.4-85.21408
2010-03-01T00:00341616-54.3-85.21438
2010-03-01T00:00341866-54.3-85.21457
2010-03-01T00:00342056-54.1-85.01457
2010-03-01T00:00342306-53.9-84.91447
2010-03-01T00:00342526-53.6-84.61426
2010-03-01T00:00342756-53.5-84.61416
2010-03-01T00:00343006-53.4-84.51406
2010-03-01T00:00343286-53.4-84.51396
2010-03-01T00:00343506-53.3-84.41376
2010-03-01T00:00343726-53.1-84.31345
2010-03-01T00:00343896-52.9-84.11315
2010-03-01T00:00344096-52.8-84.11295
2010-03-01T00:00344316-52.5-83.81285
2010-03-01T00:00344575-52.2-83.61275
2010-03-01T00:00344885-51.9-83.41275
2010-03-01T00:00345065-51.5-83.11265
2010-03-01T00:00345195-51.4-83.01245
2010-03-01T00:00345445-51.5-83.11226
2010-03-01T00:00345765-51.6-83.21206
2010-03-01T00:00345925-51.8-83.31196
2010-03-01T00:00346125-51.7-83.21196
2010-03-01T00:00346335-51.6-83.21226
2010-03-01T00:00346635-51.3-82.91286
2010-03-01T00:00346945-50.9-82.71365
2010-03-01T00:00347185-50.7-82.51465
2010-03-01T00:00347395-50.7-82.51554
2010-03-01T00:00347625-50.6-82.41654
2010-03-01T00:00347965-50.8-82.61784
2010-03-01T00:00348245-50.9-82.71953
2010-03-01T00:00348505-51.0-82.72143
2010-03-01T00:00348725-50.4-82.32264
2010-03-01T00:00349035-50.0-82.02325
2010-03-01T00:00349325-50.0-82.02315
2010-03-01T00:00349605-49.9-81.92265
2010-03-01T00:00349925-50.0-82.02206
2010-03-01T00:00350265-49.9-81.92156
2010-03-01T00:00350625-49.6-81.72127
2010-03-01T00:00350795-49.5-81.62127
2010-03-01T00:00351015-49.3-81.52138
2010-03-01T00:00351375-49.0-81.32138
2010-03-01T00:00351645-48.7-81.02139
2010-03-01T00:00351945-48.6-81.021210
2010-03-01T00:00352235-48.7-81.021010
2010-03-01T00:00352475-48.6-81.021010
2010-03-01T00:00352755-48.4-80.821010
2010-03-01T00:00353055-48.1-80.621111
2010-03-01T00:00353305-47.9-80.421211
2010-03-01T00:00353655-47.8-80.421411
2010-03-01T00:00353955-47.5-80.221512
2010-03-01T00:00354275-47.2-79.921613
2010-03-01T00:00354455-47.2-79.921814
2010-03-01T00:00354625-47.0-79.821915
2010-03-01T00:00354845-47.2-79.922115
2010-03-01T00:00355165-47.0-79.822216
2010-03-01T00:00355325-47.0-79.822416
2010-03-01T00:00355505-47.0-79.822516
2010-03-01T00:00355775-47.0-79.822616
2010-03-01T00:00355995-46.8-79.622816
2010-03-01T00:00356185-46.6-79.522916
2010-03-01T00:00356365-46.4-79.323215
2010-03-01T00:00356745-46.4-79.323415
2010-03-01T00:00356985-46.5-79.423715
2010-03-01T00:00357165-46.5-79.423914
2010-03-01T00:00357345-46.5-79.424114
2010-03-01T00:00357635-46.6-79.524214
2010-03-01T00:00357814-46.7-79.624314
2010-03-01T00:00358044-46.8-79.624413
2010-03-01T00:00358384-46.9-79.724513
2010-03-01T06:001129795.50.924012
2010-03-01T06:001299775.70.924910
2010-03-01T06:001409765.60.824814
2010-03-01T06:001569745.50.524817
2010-03-01T06:001829715.20.424819
2010-03-01T06:002029685.20.424720
2010-03-01T06:002209665.00.424721
2010-03-01T06:002419644.80.224622
2010-03-01T06:002649614.50.524623
2010-03-01T06:002819594.40.424723
2010-03-01T06:002899584.20.224724
2010-03-01T06:003019574.20.224723
2010-03-01T06:003189554.10.324723
2010-03-01T06:003319534.00.224622
2010-03-01T06:003489513.70.124521
2010-03-01T06:003609503.60.024520
2010-03-01T06:003689493.50.024520
2010-03-01T06:003759483.50.024620
2010-03-01T06:003819473.50.024620
2010-03-01T06:003869473.4-0.124620
2010-03-01T06:004019453.2-0.124519
2010-03-01T06:004159433.1-0.224619
2010-03-01T06:004289423.0-0.124619
2010-03-01T06:004479402.7-0.224719
2010-03-01T06:004679372.5-0.224619
2010-03-01T06:004869352.4-0.224621
2010-03-01T06:005069332.2-0.324622
2010-03-01T06:005229312.0-0.524623
2010-03-01T06:005409291.8-0.524624
2010-03-01T06:005589271.7-0.524724
2010-03-01T06:005769251.5-0.524824
2010-03-01T06:005969221.2-0.824924
2010-03-01T06:006179201.1-0.725024
2010-03-01T06:006379180.9-0.825125
2010-03-01T06:006619150.7-0.825225
2010-03-01T06:006849120.5-0.825226
2010-03-01T06:007099100.2-1.025127
2010-03-01T06:00745905-0.1-1.125027
2010-03-01T06:00782901-0.5-1.324928
2010-03-01T06:00813898-0.8-1.324928
2010-03-01T06:00848894-1.1-1.525027
2010-03-01T06:00876891-1.3-1.525127
2010-03-01T06:00904888-1.5-1.625426
2010-03-01T06:00936884-1.8-1.925626
2010-03-01T06:00962881-1.8-1.825726
2010-03-01T06:00994878-2.1-2.125826
2010-03-01T06:001023874-2.3-2.325726
2010-03-01T06:001049872-2.4-2.425726
2010-03-01T06:001081868-2.6-2.625626
2010-03-01T06:001111865-2.8-2.825626
2010-03-01T06:001149861-3.0-3.025626
2010-03-01T06:001174858-3.2-3.225627
2010-03-01T06:001200855-3.4-3.425727
2010-03-01T06:001230852-3.6-3.625827
2010-03-01T06:001259849-3.8-3.826027
2010-03-01T06:001287846-3.9-3.926127
2010-03-01T06:001319842-4.1-4.126327
2010-03-01T06:001346840-4.2-4.226427
2010-03-01T06:001371837-4.3-4.326527
2010-03-01T06:001397834-4.6-4.626628
2010-03-01T06:001423831-4.8-4.826729
2010-03-01T06:001450828-4.9-4.926730
2010-03-01T06:001479825-5.1-5.126731
2010-03-01T06:001508822-5.3-5.326731
2010-03-01T06:001536819-5.5-5.526731
2010-03-01T06:001564817-5.8-5.826731
2010-03-01T06:001593814-5.9-5.926731
2010-03-01T06:001620811-6.0-6.026931
2010-03-01T06:001643808-6.2-6.227031
2010-03-01T06:001665806-6.2-6.227231
2010-03-01T06:001691803-6.2-6.227331
2010-03-01T06:001715801-6.3-6.327332
2010-03-01T06:001738799-6.4-6.427332
2010-03-01T06:001761796-6.5-6.527332
2010-03-01T06:001784794-6.6-6.727233
2010-03-01T06:001807792-6.8-6.927233
2010-03-01T06:001829789-6.8-7.027233
2010-03-01T06:001851787-6.9-7.127333
2010-03-01T06:001874785-7.1-7.527333
2010-03-01T06:001900782-7.3-7.827333
2010-03-01T06:001927780-7.4-8.127333
2010-03-01T06:001953777-7.6-8.427232
2010-03-01T06:001977774-7.8-8.827232
2010-03-01T06:001998772-7.9-9.127232
2010-03-01T06:002026770-8.1-9.327231
2010-03-01T06:002051767-8.2-9.427231
2010-03-01T06:002076765-8.4-9.627131
2010-03-01T06:002099762-8.5-9.727131
2010-03-01T06:002126760-8.8-10.027031
2010-03-01T06:002151757-8.8-10.027031
2010-03-01T06:002178755-8.8-9.926931
2010-03-01T06:002202752-8.9-10.126931
2010-03-01T06:002229750-9.0-10.226932
2010-03-01T06:002254747-9.1-10.426932
2010-03-01T06:002278745-9.3-10.626932
2010-03-01T06:002301743-9.4-10.726933
2010-03-01T06:002329740-9.5-10.826833
2010-03-01T06:002355738-9.8-11.126833
2010-03-01T06:002381735-9.9-11.226833
2010-03-01T06:002409733-10.1-11.426833
2010-03-01T06:002434730-10.2-11.526833
2010-03-01T06:002458728-10.3-11.626833
2010-03-01T06:002487725-10.5-11.826933
2010-03-01T06:002514723-10.8-12.126933
2010-03-01T06:002538720-10.9-12.127033
2010-03-01T06:002561718-11.0-12.227033
2010-03-01T06:002587716-11.2-12.427033
2010-03-01T06:002612713-11.4-12.727033
2010-03-01T06:002639711-11.5-12.827032
2010-03-01T06:002665708-11.8-13.227032
2010-03-01T06:002690706-11.9-13.327032
2010-03-01T06:002715704-12.1-13.427032
2010-03-01T06:002741701-12.2-13.527033
2010-03-01T06:002765699-12.4-13.726933
2010-03-01T06:002792697-12.6-13.926933
2010-03-01T06:002816695-12.8-14.026933
2010-03-01T06:002841692-12.9-14.126933
2010-03-01T06:002864690-13.1-14.326933
2010-03-01T06:002892688-13.2-14.526934
2010-03-01T06:002918685-13.4-14.726934
2010-03-01T06:002941683-13.5-14.826934
2010-03-01T06:002966681-13.6-14.926933
2010-03-01T06:002991679-13.8-15.126933
2010-03-01T06:003016677-14.0-15.326933
2010-03-01T06:003038675-14.2-15.526933
2010-03-01T06:003063672-14.3-15.627033
2010-03-01T06:003087670-14.5-15.827033
2010-03-01T06:003114668-14.8-16.127033
2010-03-01T06:003139666-14.9-16.027033
2010-03-01T06:003165663-15.0-16.127033
2010-03-01T06:003191661-15.2-16.327033
2010-03-01T06:003218659-15.4-16.727033
2010-03-01T06:003240657-15.6-16.926933
2010-03-01T06:003264655-15.8-17.126933
2010-03-01T06:003291652-15.9-17.226933
2010-03-01T06:003316650-16.1-17.426933
2010-03-01T06:003339648-16.3-17.526933
2010-03-01T06:003364646-16.4-17.626833
2010-03-01T06:003387644-16.6-17.826833
2010-03-01T06:003412642-16.8-18.026833
2010-03-01T06:003436640-17.0-18.226833
2010-03-01T06:003459638-17.2-18.426833
2010-03-01T06:003486636-17.3-18.526734
2010-03-01T06:003509634-17.5-18.726734
2010-03-01T06:003528632-17.6-18.826733
2010-03-01T06:003558630-17.9-19.126733
2010-03-01T06:003584627-18.0-19.426832
2010-03-01T06:003609625-18.2-19.526832
2010-03-01T06:003630624-18.4-19.626932
2010-03-01T06:003655621-18.5-19.726832
2010-03-01T06:003680619-18.7-20.026732
2010-03-01T06:003709617-18.9-20.426632
2010-03-01T06:003732615-19.1-20.626532
2010-03-01T06:003753613-19.2-20.726532
2010-03-01T06:003775612-19.4-20.926532
2010-03-01T06:003800609-19.5-21.026531
2010-03-01T06:003828607-19.7-21.326631
2010-03-01T06:003853605-19.8-21.426731
2010-03-01T06:003877603-20.0-21.626731
2010-03-01T06:003900601-20.1-21.826831
2010-03-01T06:003923599-20.2-21.926831
2010-03-01T06:003947598-20.4-22.226830
2010-03-01T06:003971596-20.5-22.426730
2010-03-01T06:003993594-20.6-22.626730
2010-03-01T06:004019592-20.7-22.726730
2010-03-01T06:004045590-20.9-22.926730
2010-03-01T06:004068588-21.0-23.026829
2010-03-01T06:004093586-21.2-23.426829
2010-03-01T06:004115584-21.3-23.626829
2010-03-01T06:004141582-21.4-23.726829
2010-03-01T06:004165580-21.5-23.826928
2010-03-01T06:004189578-21.7-24.026828
2010-03-01T06:004211577-21.8-24.226827
2010-03-01T06:004236575-21.9-24.426726
2010-03-01T06:004257573-21.9-24.326726
2010-03-01T06:004279571-22.0-24.526626
2010-03-01T06:004303569-22.2-24.926626
2010-03-01T06:004327568-22.3-25.026626
2010-03-01T06:004352566-22.4-25.226726
2010-03-01T06:004377564-22.4-25.226726
2010-03-01T06:004401562-22.5-25.126825
2010-03-01T06:004423560-22.6-25.226825
2010-03-01T06:004447558-22.7-25.326824
2010-03-01T06:004475556-22.8-25.426824
2010-03-01T06:004499554-23.0-25.526824
2010-03-01T06:004522553-23.026923
2010-03-01T06:004549551-23.1-25.527023
2010-03-01T06:004574549-23.3-25.527123
2010-03-01T06:004595547-23.5-25.727223
2010-03-01T06:004618545-23.6-25.727223
2010-03-01T06:004643544-23.8-25.827222
2010-03-01T06:004668542-23.9-25.927022
2010-03-01T06:004692540-24.0-26.126821
2010-03-01T06:004718538-24.1-26.526521
2010-03-01T06:004738537-24.1-26.626320
2010-03-01T06:004761535-24.3-26.826220
2010-03-01T06:004787533-24.5-26.926220
2010-03-01T06:004812531-24.7-26.926221
2010-03-01T06:004838529-24.9-27.126221
2010-03-01T06:004860528-25.1-27.426221
2010-03-01T06:004887526-25.3-27.926222
2010-03-01T06:004913524-25.5-28.126222
2010-03-01T06:004940522-25.6-28.326122
2010-03-01T06:004964520-25.8-28.526122
2010-03-01T06:004993518-26.0-28.726122
2010-03-01T06:005015516-26.2-28.926122
2010-03-01T06:005036515-26.3-29.026022
2010-03-01T06:005062513-26.5-29.326022
2010-03-01T06:005090511-26.6-29.525922
2010-03-01T06:005118509-26.8-29.725822
2010-03-01T06:005144507-27.0-29.925722
2010-03-01T06:005168506-27.1-30.025722
2010-03-01T06:005191504-27.3-30.225822
2010-03-01T06:005213503-27.5-30.325922
2010-03-01T06:005237501-27.7-30.525922
2010-03-01T06:005264499-27.9-30.625922
2010-03-01T06:005288497-28.1-30.625921
2010-03-01T06:005313496-28.3-30.826021
2010-03-01T06:005343493-28.5-31.026121
2010-03-01T06:005370492-28.7-31.326321
2010-03-01T06:005393490-28.8-31.726621
2010-03-01T06:005415489-29.0-32.126720
2010-03-01T06:005439487-29.0-32.426820
2010-03-01T06:005465485-29.1-32.626820
2010-03-01T06:005493483-29.2-32.926820
2010-03-01T06:005519481-29.3-33.126920
2010-03-01T06:005547480-29.3-33.326920
2010-03-01T06:005571478-29.4-33.227019
2010-03-01T06:005596476-29.4-33.127219
2010-03-01T06:005628474-29.6-33.127319
2010-03-01T06:005654472-29.8-33.127518
2010-03-01T06:005679471-30.0-33.127718
2010-03-01T06:005703469-30.1-33.027817
2010-03-01T06:005733467-30.3-33.028017
2010-03-01T06:005760465-30.5-33.128117
2010-03-01T06:005784464-30.7-33.128216
2010-03-01T06:005809462-30.9-33.128416
2010-03-01T06:005836461-31.0-33.028515
2010-03-01T06:005861459-31.2-33.128514
2010-03-01T06:005885457-31.3-33.128513
2010-03-01T06:005918455-31.4-33.228413
2010-03-01T06:005948453-31.6-33.628212
2010-03-01T06:005972452-31.6-33.928111
2010-03-01T06:005996450-31.8-34.627911
2010-03-01T06:006024448-32.0-34.927810
2010-03-01T06:006048447-32.1-35.027710
2010-03-01T06:006070446-32.3-35.127710
2010-03-01T06:006096444-32.6-35.327711
2010-03-01T06:006122442-32.8-35.127611
2010-03-01T06:006147441-33.0-35.627512
2010-03-01T06:006174439-33.2-36.227512
2010-03-01T06:006203437-33.5-36.727412
2010-03-01T06:006233435-33.8-37.027412
2010-03-01T06:006256434-34.0-37.127512
2010-03-01T06:006285432-34.2-37.227711
2010-03-01T06:006309431-34.5-37.527811
2010-03-01T06:006331429-34.6-37.728011
2010-03-01T06:006359428-34.8-37.928011
2010-03-01T06:006383426-35.0-38.128011
2010-03-01T06:006408425-35.2-38.327911
2010-03-01T06:006435423-35.4-38.127711
2010-03-01T06:006461421-35.6-38.227611
2010-03-01T06:006489420-35.8-38.327411
2010-03-01T06:006515418-36.1-38.627410
2010-03-01T06:006545416-36.4-38.627410
2010-03-01T06:006573415-36.6-38.72759
2010-03-01T06:006602413-36.8-39.02769
2010-03-01T06:006626411-36.9-39.12789
2010-03-01T06:006653410-37.1-39.12799
2010-03-01T06:006675408-37.3-39.32809
2010-03-01T06:006707407-37.6-39.528110
2010-03-01T06:006735405-37.8-39.728110
2010-03-01T06:006758404-38.0-39.628110
2010-03-01T06:006783402-38.2-39.328011
2010-03-01T06:006806401-38.4-39.328011
2010-03-01T06:006835399-38.5-40.328011
2010-03-01T06:006860398-38.8-40.128111
2010-03-01T06:006884396-39.0-39.928111
2010-03-01T06:006907395-39.1-41.128111
2010-03-01T06:006930394-39.4-41.828111
2010-03-01T06:006953392-39.5-42.128211
2010-03-01T06:006978391-39.8-42.428311
2010-03-01T06:007001390-40.0-42.928511
2010-03-01T06:007024388-40.2-43.228711
2010-03-01T06:007052387-40.6-43.128911
2010-03-01T06:007070386-40.8-42.729010
2010-03-01T06:007092384-41.0-42.828910
2010-03-01T06:007120383-41.2-42.828810
2010-03-01T06:007143382-41.4-43.12869
2010-03-01T06:007174380-41.5-43.52859
2010-03-01T06:007207378-41.8-43.52848
2010-03-01T06:007235376-42.0-43.72848
2010-03-01T06:007265375-42.2-43.92847
2010-03-01T06:007293373-42.4-44.32857
2010-03-01T06:007318372-42.6-44.62866
2010-03-01T06:007338371-42.8-44.82866
2010-03-01T06:007368369-43.0-45.12856
2010-03-01T06:007390368-43.2-45.22836
2010-03-01T06:007410367-43.3-45.32816
2010-03-01T06:007431366-43.5-45.62796
2010-03-01T06:007453364-43.6-45.62786
2010-03-01T06:007476363-43.8-45.82786
2010-03-01T06:007498362-44.02796
2010-03-01T06:007517361-44.2-46.32817
2010-03-01T06:007538360-44.3-46.52847
2010-03-01T06:007558359-44.4-46.92877
2010-03-01T06:007578358-44.5-47.02917
2010-03-01T06:007598357-44.7-47.22957
2010-03-01T06:007620355-44.8-47.22987
2010-03-01T06:007640354-44.9-47.33017
2010-03-01T06:007662353-45.1-47.63037
2010-03-01T06:007683352-45.2-47.93037
2010-03-01T06:007705351-45.2-47.93037
2010-03-01T06:007727350-45.3-47.93017
2010-03-01T06:007754348-45.6-48.12967
2010-03-01T06:007781347-45.7-48.32918
2010-03-01T06:007808346-45.4-48.92848
2010-03-01T06:007826345-45.4-49.92789
2010-03-01T06:007845344-45.4-50.627310
2010-03-01T06:007866343-45.5-51.427010
2010-03-01T06:007892341-45.5-52.026811
2010-03-01T06:007911340-45.5-52.826812
2010-03-01T06:007932339-45.2-53.326812
2010-03-01T06:007950338-45.1-55.426812
2010-03-01T06:007970337-45.1-57.626712
2010-03-01T06:007993336-45.1-58.026712
2010-03-01T06:008011335-45.1-58.726612
2010-03-01T06:008033334-45.1-59.626512
2010-03-01T06:008053333-45.1-60.626412
2010-03-01T06:008073332-45.1-61.126312
2010-03-01T06:008095331-45.1-61.726213
2010-03-01T06:008117330-44.9-62.226213
2010-03-01T06:008138329-44.9-61.626114
2010-03-01T06:008159328-44.8-61.526114
2010-03-01T06:008184327-44.8-62.126115
2010-03-01T06:008205326-44.9-62.226015
2010-03-01T06:008227325-44.9-62.225915
2010-03-01T06:008247324-45.0-62.325815
2010-03-01T06:008271322-45.1-62.425615
2010-03-01T06:008299321-45.1-62.425415
2010-03-01T06:008319320-45.1-63.125215
2010-03-01T06:008341319-45.0-63.025015
2010-03-01T06:008363318-44.9-63.624816
2010-03-01T06:008387317-44.8-63.624616
2010-03-01T06:008408316-44.9-63.624416
2010-03-01T06:008430315-44.9-63.624317
2010-03-01T06:008453314-44.8-63.624117
2010-03-01T06:008474313-44.9-63.624018
2010-03-01T06:008496312-44.5-63.323919
2010-03-01T06:008520311-43.7-64.423920
2010-03-01T06:008543310-43.5-64.324021
2010-03-01T06:008565309-43.6-64.324021
2010-03-01T06:008590307-43.6-65.424021
2010-03-01T06:008613306-43.2-65.124121
2010-03-01T06:008638305-43.2-64.024121
2010-03-01T06:008661304-43.4-64.224121
2010-03-01T06:008684303-43.6-65.424120
2010-03-01T06:008705302-43.7-65.524220
2010-03-01T06:008729301-43.3-65.224319
2010-03-01T06:008755300-42.9-64.924419
2010-03-01T06:008776299-42.7-64.724519
2010-03-01T06:008797298-42.7-63.624618
2010-03-01T06:008819297-42.6-63.524718
2010-03-01T06:008843296-42.4-64.424718
2010-03-01T06:008864295-42.3-64.424818
2010-03-01T06:008885294-42.4-64.424919
2010-03-01T06:008907293-42.5-64.524919
2010-03-01T06:008930292-42.6-65.925019
2010-03-01T06:008952291-42.7-64.725020
2010-03-01T06:008974290-42.8-66.125120
2010-03-01T06:008998289-43.0-64.925220
2010-03-01T06:009024288-43.2-64.025221
2010-03-01T06:009046287-43.1-63.925322
2010-03-01T06:009067286-43.2-64.025422
2010-03-01T06:009087286-43.2-63.125423
2010-03-01T06:009111284-43.3-64.125523
2010-03-01T06:009133284-43.3-64.125524
2010-03-01T06:009156283-43.3-63.125524
2010-03-01T06:009180282-43.4-64.225525
2010-03-01T06:009200281-43.3-65.225525
2010-03-01T06:009220280-43.0-63.825525
2010-03-01T06:009241279-42.7-63.625625
2010-03-01T06:009262278-42.7-64.725625
2010-03-01T06:009282277-42.7-63.625625
2010-03-01T06:009302277-42.6-63.525724
2010-03-01T06:009323276-42.5-63.425724
2010-03-01T06:009344275-42.5-63.425723
2010-03-01T06:009366274-42.5-63.425723
2010-03-01T06:009387273-42.6-64.625723
2010-03-01T06:009408272-42.6-63.525822
2010-03-01T06:009430271-42.5-63.425922
2010-03-01T06:009451271-42.5-65.826022
2010-03-01T06:009471270-42.6-65.926121
2010-03-01T06:009493269-42.6-65.926121
2010-03-01T06:009515268-42.6-65.926021
2010-03-01T06:009536267-42.5-65.825920
2010-03-01T06:009559266-42.4-64.425720
2010-03-01T06:009581265-42.4-64.425620
2010-03-01T06:009604264-42.2-65.625419
2010-03-01T06:009629263-42.1-65.525319
2010-03-01T06:009657262-42.2-65.625219
2010-03-01T06:009680261-42.3-65.625219
2010-03-01T06:009705261-42.3-67.225118
2010-03-01T06:009729260-42.5-67.425118
2010-03-01T06:009752259-42.6-67.425018
2010-03-01T06:009775258-42.8-67.625018
2010-03-01T06:009797257-42.9-67.724918
2010-03-01T06:009819256-43.124818
2010-03-01T06:009842255-43.2-67.924817
2010-03-01T06:009867254-43.3-68.024817
2010-03-01T06:009890253-43.3-68.024817
2010-03-01T06:009914253-43.2-67.924916
2010-03-01T06:009935252-43.3-65.225016
2010-03-01T06:009958251-43.4-66.525016
2010-03-01T06:009981250-43.5-66.625016
2010-03-01T06:0010002249-43.5-65.324916
2010-03-01T06:0010023249-43.6-68.224716
2010-03-01T06:0010047248-43.6-68.224616
2010-03-01T06:0010069247-43.6-68.224516
2010-03-01T06:0010094246-43.7-66.824416
2010-03-01T06:0010116245-43.7-65.524316
2010-03-01T06:0010139244-43.6-65.424316
2010-03-01T06:0010160243-43.6-65.424316
2010-03-01T06:0010184243-43.5-65.324316
2010-03-01T06:0010208242-43.5-66.624317
2010-03-01T06:0010230241-43.4-66.524317
2010-03-01T06:0010253240-43.5-68.224317
2010-03-01T06:0010277239-43.6-68.224217
2010-03-01T06:0010298239-43.7-66.824218
2010-03-01T06:0010320238-43.9-66.924118
2010-03-01T06:0010340237-44.0-67.024119
2010-03-01T06:0010363236-44.2-67.224019
2010-03-01T06:0010384236-44.424019
2010-03-01T06:0010405235-44.6-69.024019
2010-03-01T06:0010426234-44.7-69.124020
2010-03-01T06:0010446233-44.8-67.724020
2010-03-01T06:0010466233-44.9-69.324121
2010-03-01T06:0010486232-44.9-69.324321
2010-03-01T06:0010506231-44.7-69.124422
2010-03-01T06:0010527231-44.6-69.024522
2010-03-01T06:0010550230-44.6-71.024623
2010-03-01T06:0010572229-44.6-69.024823
2010-03-01T06:0010593228-44.6-69.024923
2010-03-01T06:0010616227-44.5-70.925023
2010-03-01T06:0010638227-44.2-68.725022
2010-03-01T06:0010661226-43.9-70.425022
2010-03-01T06:0010684225-43.9-70.425022
2010-03-01T06:0010704224-43.9-70.424922
2010-03-01T06:0010724224-44.0-70.524922
2010-03-01T06:0010745223-44.0-70.524821
2010-03-01T06:0010766222-44.1-70.624821
2010-03-01T06:0010789222-44.2-70.724721
2010-03-01T06:0010811221-44.2-70.724720
2010-03-01T06:0010832220-44.2-68.724720
2010-03-01T06:0010853220-44.3-68.824720
2010-03-01T06:0010875219-44.424720
2010-03-01T06:0010896218-44.6-67.524720
2010-03-01T06:0010918217-44.7-69.124820
2010-03-01T06:0010940217-44.8-71.124820
2010-03-01T06:0010961216-44.9-71.224820
2010-03-01T06:0010982215-44.9-69.324819
2010-03-01T06:0011003215-44.9-69.324820
2010-03-01T06:0011025214-44.9-69.324820
2010-03-01T06:0011046213-45.0-67.824820
2010-03-01T06:0011068213-45.1-67.924820
2010-03-01T06:0011088212-45.1-69.424721
2010-03-01T06:0011108211-45.0-71.324721
2010-03-01T06:0011129211-45.0-71.324721
2010-03-01T06:0011152210-45.0-71.324721
2010-03-01T06:0011174209-45.0-71.324720
2010-03-01T06:0011196209-45.1-71.424820
2010-03-01T06:0011218208-45.1-71.424820
2010-03-01T06:0011240207-45.1-69.424920
2010-03-01T06:0011261207-44.8-69.225020
2010-03-01T06:0011282206-44.8-69.225120
2010-03-01T06:0011302205-44.8-67.725120
2010-03-01T06:0011324205-44.9-69.325220
2010-03-01T06:0011347204-44.9-69.325121
2010-03-01T06:0011369203-45.0-69.425121
2010-03-01T06:0011390203-45.0-69.425121
2010-03-01T06:0011411202-44.9-69.325121
2010-03-01T06:0011433201-44.7-71.025121
2010-03-01T06:0011454201-44.7-71.025021
2010-03-01T06:0011475200-44.9-71.225021
2010-03-01T06:0011497199-45.1-71.425021
2010-03-01T06:0011519199-45.2-71.425020
2010-03-01T06:0011541198-45.4-71.625020
2010-03-01T06:0011563197-45.5-71.725020
2010-03-01T06:0011584197-45.6-71.824920
2010-03-01T06:0011606196-45.6-71.824820
2010-03-01T06:0011627196-45.7-71.824620
2010-03-01T06:0011649195-45.7-71.824420
2010-03-01T06:0011671194-45.7-71.824221
2010-03-01T06:0011692194-45.4-71.624121
2010-03-01T06:0011718193-45.3-71.523922
2010-03-01T06:0011742192-45.4-71.623922
2010-03-01T06:0011768191-45.6-71.823923
2010-03-01T06:0011792191-45.7-71.823924
2010-03-01T06:0011816190-45.7-71.823925
2010-03-01T06:0011838189-45.8-71.924025
2010-03-01T06:0011861189-45.9-72.024126
2010-03-01T06:0011884188-45.9-72.024126
2010-03-01T06:0011905188-45.8-70.024127
2010-03-01T06:0011929187-45.8-70.024127
2010-03-01T06:0011952186-45.5-69.824128
2010-03-01T06:0011974186-45.6-69.824128
2010-03-01T06:0011997185-45.8-70.024229
2010-03-01T06:0012019184-45.9-72.024229
2010-03-01T06:0012041184-46.0-70.224329
2010-03-01T06:0012062183-45.9-70.124330
2010-03-01T06:0012085183-45.8-70.024430
2010-03-01T06:0012107182-45.8-71.924430
2010-03-01T06:0012130181-45.8-71.924530
2010-03-01T06:0012154181-45.7-71.824630
2010-03-01T06:0012178180-45.7-71.824630
2010-03-01T06:0012201179-45.8-71.924730
2010-03-01T06:0012224179-45.8-71.924830
2010-03-01T06:0012247178-45.8-71.924830
2010-03-01T06:0012268178-45.8-71.924930
2010-03-01T06:0012291177-45.9-72.024929
2010-03-01T06:0012313176-45.8-71.924929
2010-03-01T06:0012337176-45.9-72.025029
2010-03-01T06:0012360175-45.7-71.825028
2010-03-01T06:0012383175-45.6-71.825128

Only the first 2000 rows were shown. To view the complete dataset, download it as tab-delimited text. You can still view the full matrix in your browser, but be aware that this may crash the browser due to the huge size.